[[{"header":{"parameterUnit":"m.s-1","parameterCategory":1,"la1":30.6,"la2":29.2853,"lo1":-89.7004,"lo2":-87.6739,"dx":0.0162,"dy":0.0183,"nx":112,"ny":82,"refTime":"2022-12-25T06:00:00:Z","depth":0,"parameterNumber":2,"parameterNumberName":"U-component_of_WINDS"},"data":[0.0,0.0,0.0,0.0,0.0,0.0,0.0,0.0,0.0,0.0,0.0,0.0,0.0,0.0,0.0,0.0,0.0,0.0,0.0,0.0,0.0,0.0,0.0,0.0,0.0,0.0,0.0,0.0,0.0,0.0,0.0,0.0,0.0,0.0,0.0,0.0,0.0,0.0,0.0,0.0,0.0,0.0,0.0,0.0,0.0,0.0,0.0,0.0,0.0,0.0,0.0,0.0,0.0,0.0,0.0,0.0,0.0,0.0,0.0,0.0,0.0,0.0,0.0,0.0,0.0,0.0,0.0,0.0,0.0,0.0,0.0,0.0,0.0,0.0,0.0,0.0,0.0,0.0,0.0,0.0,0.0,0.0,0.0,0.0,0.0,0.0,0.0,0.0,0.0,0.0,0.0,5.4928,6.1807,6.5664,6.4765,6.3086,5.8086,4.8594,0.0,0.0,0.0,0.0,0.0,0.0,0.0,0.0,0.0,0.0,0.0,0.0,0.0,0.0,0.0,0.0,0.0,0.0,0.0,0.0,0.0,0.0,0.0,0.0,0.0,0.0,0.0,0.0,0.0,0.0,0.0,0.0,0.0,0.0,0.0,0.0,0.0,0.0,0.0,0.0,0.0,0.0,0.0,0.0,0.0,0.0,0.0,0.0,0.0,0.0,0.0,0.0,0.0,0.0,0.0,0.0,0.0,0.0,0.0,0.0,0.0,0.0,0.0,0.0,0.0,0.0,0.0,0.0,0.0,0.0,0.0,0.0,0.0,0.0,0.0,0.0,0.0,0.0,0.0,0.0,0.0,0.0,0.0,0.0,0.0,0.0,0.0,0.0,0.0,0.0,0.0,0.0,0.0,0.0,0.0,0.0,0.0,0.0,0.0,0.0,0.0,0.0,0.0,0.0,4.9836,6.1479,6.578,6.7461,6.6562,6.4922,5.9883,5.0391,0.0,0.0,0.0,0.0,0.0,0.0,0.0,0.0,0.0,0.0,0.0,0.0,0.0,0.0,0.0,0.0,0.0,0.0,0.0,0.0,0.0,0.0,0.0,0.0,0.0,0.0,0.0,0.0,0.0,0.0,0.0,0.0,0.0,0.0,0.0,0.0,0.0,0.0,0.0,0.0,0.0,0.0,0.0,0.0,0.0,0.0,0.0,0.0,0.0,0.0,0.0,0.0,0.0,0.0,0.0,0.0,0.0,0.0,0.0,0.0,0.0,0.0,0.0,0.0,0.0,0.0,0.0,0.0,0.0,0.0,0.0,0.0,0.0,0.0,0.0,0.0,0.0,0.0,0.0,0.0,0.0,0.0,0.0,0.0,0.0,0.0,0.0,0.0,0.0,0.0,0.0,0.0,0.0,0.0,0.0,0.0,0.0,0.0,0.0,0.0,0.0,0.0,0.0,4.8828,5.5312,6.4062,6.7344,6.8711,6.8281,6.582,6.0859,5.2773,4.7773,0.0,0.0,0.0,0.0,0.0,0.0,0.0,0.0,0.0,0.0,0.0,0.0,0.0,0.0,0.0,0.0,0.0,0.0,0.0,0.0,0.0,0.0,0.0,0.0,0.0,0.0,0.0,0.0,0.0,0.0,0.0,0.0,0.0,0.0,0.0,0.0,0.0,0.0,0.0,0.0,0.0,0.0,0.0,0.0,0.0,0.0,0.0,0.0,0.0,0.0,0.0,0.0,0.0,0.0,0.0,0.0,0.0,0.0,0.0,0.0,0.0,0.0,0.0,0.0,0.0,0.0,0.0,0.0,0.0,0.0,0.0,0.0,0.0,0.0,0.0,0.0,0.0,0.0,0.0,0.0,0.0,0.0,0.0,0.0,0.0,0.0,0.0,0.0,0.0,0.0,0.0,0.0,0.0,0.0,0.0,0.0,0.0,0.0,0.0,0.0,0.0,0.0,5.5976,6.125,6.6015,6.8672,7.0,6.9726,6.6953,6.1992,5.4492,4.9336,0.0,0.0,0.0,0.0,0.0,0.0,0.0,0.0,0.0,0.0,0.0,0.0,0.0,0.0,0.0,0.0,0.0,0.0,0.0,0.0,0.0,0.0,0.0,0.0,0.0,0.0,0.0,0.0,0.0,0.0,0.0,0.0,0.0,0.0,0.0,0.0,0.0,0.0,0.0,0.0,0.0,0.0,0.0,0.0,0.0,0.0,0.0,0.0,0.0,0.0,0.0,0.0,0.0,0.0,0.0,0.0,0.0,0.0,0.0,0.0,0.0,0.0,0.0,0.0,0.0,0.0,0.0,0.0,0.0,0.0,0.0,0.0,0.0,0.0,0.0,0.0,0.0,0.0,0.0,0.0,0.0,0.0,0.0,0.0,0.0,0.0,0.0,0.0,0.0,0.0,0.0,0.0,0.0,0.0,0.0,0.0,0.0,0.0,0.0,0.0,0.0,0.0,5.8203,6.5234,6.8828,7.0781,7.1484,7.0664,6.8945,6.3945,5.4609,4.9922,0.0,0.0,0.0,0.0,0.0,0.0,0.0,0.0,0.0,0.0,0.0,0.0,0.0,0.0,0.0,0.0,0.0,0.0,0.0,0.0,0.0,0.0,0.0,0.0,0.0,0.0,0.0,0.0,0.0,0.0,0.0,0.0,0.0,0.0,0.0,0.0,0.0,0.0,0.0,0.0,0.0,0.0,0.0,0.0,0.0,0.0,0.0,0.0,0.0,0.0,0.0,0.0,0.0,0.0,0.0,0.0,0.0,0.0,0.0,0.0,0.0,0.0,0.0,0.0,0.0,0.0,0.0,0.0,0.0,0.0,0.0,0.0,0.0,0.0,0.0,0.0,0.0,0.0,0.0,0.0,0.0,0.0,0.0,0.0,0.0,0.0,0.0,0.0,0.0,0.0,0.0,0.0,0.0,0.0,0.0,0.0,0.0,0.0,0.0,0.0,0.0,0.0,5.8164,6.4844,0.0,7.2617,7.3281,7.2383,7.0273,6.5195,5.6172,0.0,0.0,0.0,0.0,0.0,0.0,0.0,0.0,0.0,0.0,0.0,0.0,0.0,0.0,0.0,0.0,0.0,0.0,0.0,0.0,0.0,0.0,0.0,0.0,0.0,0.0,0.0,0.0,0.0,0.0,0.0,0.0,0.0,0.0,0.0,0.0,0.0,0.0,0.0,0.0,0.0,0.0,0.0,0.0,0.0,0.0,0.0,0.0,0.0,0.0,0.0,0.0,0.0,0.0,0.0,0.0,0.0,0.0,0.0,0.0,0.0,0.0,0.0,0.0,0.0,0.0,0.0,0.0,0.0,0.0,0.0,0.0,0.0,0.0,0.0,0.0,0.0,0.0,0.0,0.0,0.0,0.0,0.0,0.0,0.0,0.0,0.0,0.0,0.0,0.0,0.0,0.0,0.0,0.0,0.0,0.0,0.0,0.0,0.0,0.0,0.0,0.0,5.1797,5.9414,6.6172,0.0,7.3828,7.4648,7.3789,7.1367,6.6211,5.7578,0.0,0.0,0.0,0.0,0.0,0.0,0.0,0.0,0.0,0.0,0.0,0.0,0.0,0.0,0.0,0.0,0.0,0.0,0.0,0.0,0.0,0.0,0.0,0.0,0.0,0.0,0.0,0.0,0.0,0.0,0.0,0.0,0.0,0.0,0.0,0.0,0.0,0.0,0.0,0.0,0.0,0.0,0.0,0.0,0.0,0.0,0.0,0.0,0.0,0.0,0.0,0.0,0.0,0.0,0.0,0.0,0.0,0.0,0.0,0.0,0.0,0.0,0.0,0.0,0.0,0.0,0.0,0.0,0.0,0.0,0.0,0.0,0.0,0.0,0.0,0.0,0.0,0.0,0.0,0.0,0.0,0.0,0.0,0.0,0.0,0.0,0.0,0.0,0.0,0.0,0.0,0.0,0.0,0.0,0.0,0.0,0.0,0.0,0.0,0.0,0.0,0.0,5.2305,6.25,7.0078,7.1836,7.4375,7.5547,7.4687,7.2226,6.7031,0.0,0.0,0.0,0.0,0.0,0.0,0.0,0.0,0.0,0.0,0.0,0.0,0.0,0.0,0.0,0.0,0.0,0.0,0.0,0.0,0.0,0.0,0.0,0.0,0.0,0.0,0.0,0.0,0.0,0.0,0.0,0.0,0.0,0.0,0.0,0.0,0.0,0.0,0.0,0.0,0.0,0.0,0.0,0.0,0.0,0.0,0.0,0.0,0.0,0.0,0.0,0.0,0.0,0.0,0.0,0.0,0.0,0.0,0.0,0.0,0.0,0.0,0.0,0.0,0.0,0.0,0.0,0.0,0.0,0.0,0.0,0.0,0.0,0.0,0.0,0.0,0.0,0.0,0.0,0.0,0.0,0.0,0.0,0.0,0.0,0.0,0.0,0.0,0.0,0.0,0.0,0.0,0.0,0.0,0.0,0.0,0.0,0.0,0.0,0.0,0.0,0.0,0.0,0.0,6.3789,7.1211,7.3594,7.5625,7.6445,7.5586,7.3047,6.7562,5.8353,0.0,0.0,0.0,0.0,0.0,0.0,0.0,0.0,0.0,0.0,0.0,0.0,0.0,0.0,0.0,0.0,0.0,0.0,0.0,0.0,0.0,0.0,0.0,0.0,0.0,0.0,0.0,0.0,0.0,0.0,0.0,0.0,0.0,0.0,0.0,0.0,0.0,0.0,0.0,0.0,0.0,0.0,0.0,0.0,0.0,0.0,0.0,0.0,0.0,0.0,0.0,0.0,0.0,0.0,0.0,0.0,0.0,0.0,0.0,0.0,0.0,0.0,0.0,0.0,0.0,0.0,0.0,0.0,0.0,0.0,0.0,0.0,0.0,0.0,0.0,0.0,0.0,0.0,0.0,0.0,0.0,0.0,0.0,0.0,0.0,0.0,0.0,0.0,0.0,0.0,0.0,0.0,0.0,0.0,0.0,0.0,0.0,0.0,0.0,0.0,0.0,0.0,5.4726,6.4609,7.1953,7.3867,7.5937,7.6992,7.6445,7.3867,6.8825,6.0747,0.0,0.0,0.0,0.0,0.0,0.0,0.0,0.0,0.0,0.0,0.0,0.0,0.0,0.0,0.0,0.0,0.0,0.0,0.0,0.0,0.0,0.0,0.0,0.0,0.0,0.0,0.0,0.0,0.0,0.0,0.0,0.0,0.0,0.0,0.0,0.0,0.0,0.0,0.0,0.0,0.0,0.0,0.0,0.0,0.0,0.0,0.0,0.0,0.0,0.0,0.0,0.0,0.0,0.0,0.0,0.0,0.0,0.0,0.0,0.0,0.0,0.0,0.0,0.0,0.0,0.0,0.0,0.0,0.0,0.0,0.0,0.0,0.0,0.0,0.0,0.0,0.0,0.0,0.0,0.0,0.0,0.0,0.0,0.0,0.0,0.0,0.0,0.0,0.0,0.0,0.0,0.0,0.0,0.0,0.0,0.0,0.0,0.0,0.0,0.0,0.0,0.0,5.5078,6.5234,7.2461,7.332,7.5703,7.7187,7.7187,7.4609,7.048,6.4563,0.0,0.0,0.0,0.0,0.0,0.0,0.0,0.0,0.0,0.0,0.0,0.0,0.0,0.0,0.0,0.0,0.0,0.0,0.0,0.0,0.0,0.0,0.0,0.0,0.0,0.0,0.0,0.0,0.0,0.0,0.0,0.0,0.0,0.0,0.0,0.0,0.0,0.0,0.0,0.0,0.0,0.0,0.0,0.0,0.0,0.0,0.0,0.0,0.0,0.0,0.0,0.0,0.0,0.0,0.0,0.0,0.0,0.0,0.0,0.0,4.2777,0.0,0.0,0.0,0.0,0.0,0.0,0.0,0.0,0.0,0.0,0.0,0.0,0.0,0.0,0.0,0.0,0.0,0.0,0.0,0.0,0.0,0.0,0.0,0.0,0.0,0.0,0.0,0.0,0.0,0.0,0.0,0.0,0.0,0.0,0.0,0.0,0.0,0.0,0.0,0.0,0.0,5.6797,6.6523,7.3359,7.4219,7.6055,7.7148,7.6992,7.4414,7.0497,6.5064,0.0,0.0,0.0,0.0,0.0,0.0,0.0,0.0,0.0,0.0,0.0,0.0,0.0,0.0,0.0,0.0,0.0,0.0,0.0,0.0,0.0,0.0,0.0,0.0,0.0,0.0,0.0,0.0,0.0,0.0,0.0,0.0,0.0,0.0,0.0,0.0,0.0,0.0,0.0,0.0,0.0,0.0,0.0,0.0,0.0,0.0,0.0,0.0,0.0,0.0,0.0,0.0,0.0,0.0,0.0,0.0,0.0,0.0,0.0,0.0,0.0,4.3866,0.0,0.0,0.0,0.0,0.0,0.0,0.0,0.0,0.0,0.0,0.0,0.0,0.0,0.0,0.0,0.0,0.0,0.0,0.0,0.0,0.0,0.0,0.0,0.0,0.0,0.0,0.0,0.0,0.0,0.0,0.0,0.0,0.0,0.0,0.0,0.0,0.0,0.0,0.0,0.0,5.9101,6.7656,7.3633,7.4492,7.6172,7.7109,7.6914,7.4741,7.1801,6.8179,6.2682,0.0,0.0,0.0,0.0,0.0,0.0,0.0,0.0,0.0,0.0,0.0,0.0,0.0,0.0,0.0,0.0,0.0,0.0,0.0,0.0,0.0,0.0,0.0,0.0,0.0,0.0,0.0,0.0,0.0,0.0,0.0,0.0,0.0,0.0,0.0,0.0,0.0,0.0,0.0,0.0,0.0,0.0,0.0,0.0,0.0,0.0,0.0,0.0,0.0,0.0,0.0,0.0,0.0,0.0,0.0,0.0,4.9904,5.102,5.2811,4.9276,4.8642,4.9677,0.0,0.0,0.0,0.0,0.0,0.0,0.0,0.0,0.0,0.0,0.0,0.0,0.0,0.0,0.0,0.0,0.0,0.0,0.0,0.0,0.0,0.0,0.0,0.0,0.0,5.3984,5.3945,0.0,0.0,0.0,0.0,0.0,0.0,0.0,0.0,0.0,0.0,0.0,0.0,6.1523,6.8828,7.3867,7.4726,7.625,7.7187,7.707,7.5175,7.3255,7.1475,6.4872,6.006,0.0,0.0,0.0,0.0,0.0,0.0,0.0,0.0,0.0,0.0,0.0,0.0,0.0,0.0,0.0,0.0,0.0,0.0,0.0,0.0,0.0,0.0,0.0,0.0,0.0,0.0,0.0,0.0,0.0,0.0,0.0,0.0,0.0,4.2662,0.0,0.0,0.0,0.0,0.0,0.0,0.0,0.0,0.0,0.0,0.0,0.0,0.0,0.0,4.9355,5.1369,5.2888,5.3891,5.5857,5.6939,5.7131,5.7016,5.7131,5.7362,5.6099,0.0,5.255,5.0371,0.0,0.0,0.0,0.0,0.0,0.0,0.0,0.0,0.0,0.0,0.0,0.0,0.0,0.0,0.0,0.0,0.0,0.0,0.0,0.0,0.0,0.0,5.8047,5.8164,5.8867,5.9375,0.0,0.0,4.7031,4.5703,0.0,0.0,0.0,0.0,0.0,0.0,0.0,0.0,6.3398,7.0078,7.4765,7.5625,7.6601,7.7344,7.7734,7.5447,7.3447,7.2157,6.8998,6.5128,6.0488,5.689,0.0,0.0,0.0,0.0,0.0,0.0,0.0,0.0,0.0,0.0,0.0,0.0,0.0,0.0,0.0,0.0,0.0,0.0,0.0,0.0,0.0,0.0,0.0,0.0,0.0,0.0,0.0,0.0,0.0,4.0184,4.3306,4.5257,4.4804,4.4174,0.0,0.0,0.0,0.0,0.0,0.0,0.0,0.0,0.0,5.0596,5.0699,5.1924,5.4507,5.5626,5.6609,5.7499,5.8484,5.9254,5.9788,5.9749,5.998,6.0404,6.0012,5.9204,5.7901,0.0,5.1702,5.0563,0.0,0.0,0.0,0.0,0.0,0.0,0.0,0.0,0.0,0.0,0.0,0.0,0.0,0.0,0.0,0.0,0.0,0.0,0.0,0.0,0.0,6.1719,6.2265,6.25,6.2578,5.8828,5.4609,0.0,5.1172,4.9687,4.5234,0.0,0.0,0.0,0.0,0.0,6.6015,7.168,7.5469,7.5859,7.7031,7.7617,7.7187,7.5137,7.3409,7.2272,6.9833,6.7191,6.446,6.0642,0.0,0.0,0.0,0.0,0.0,0.0,0.0,0.0,0.0,0.0,0.0,0.0,0.0,0.0,0.0,0.0,0.0,0.0,0.0,0.0,0.0,0.0,0.0,0.0,0.0,0.0,0.0,0.0,0.0,4.3437,0.0,4.7856,4.7752,4.7357,0.0,0.0,0.0,0.0,0.0,0.0,0.0,5.0161,5.1617,5.4566,5.4852,5.6143,5.8556,5.904,5.9601,6.0217,6.0388,6.0866,6.1488,6.145,6.1781,6.2421,6.2421,6.2421,6.2012,5.689,5.4682,5.4167,5.0855,0.0,0.0,0.0,5.0981,5.1931,5.4545,5.6143,0.0,5.3596,0.0,0.0,4.8175,0.0,0.0,0.0,0.0,5.543,5.8672,0.0,6.2187,6.4375,6.4922,6.5036,6.5106,6.3852,6.1521,0.0,5.6269,5.445,0.0,0.0,0.0,0.0,0.0,6.5234,6.8711,7.3125,7.5976,7.6211,7.7422,7.7847,7.7004,7.5002,7.3437,7.2608,7.014,6.8229,6.7167,6.3858,6.0157,0.0,0.0,0.0,0.0,0.0,0.0,0.0,0.0,0.0,0.0,0.0,0.0,0.0,0.0,0.0,0.0,0.0,0.0,0.0,0.0,0.0,0.0,0.0,0.0,0.0,0.0,0.0,0.0,0.0,0.0,5.0584,5.1435,0.0,0.0,0.0,0.0,0.0,5.0197,5.1715,5.4066,5.4912,5.6186,5.8,5.8781,5.9296,5.945,6.1074,6.1982,6.2175,6.2796,6.3207,6.3438,6.3245,6.3207,6.3245,6.3245,6.3245,6.3015,6.0311,5.8735,5.7712,5.4293,5.3492,5.413,5.3301,5.4629,5.696,5.7828,5.9158,6.0242,5.8481,5.583,5.3102,5.2099,5.2564,0.0,0.0,0.0,6.0625,6.3281,6.4492,6.5312,6.625,6.6953,6.7429,6.7423,6.6591,6.4974,0.0,6.1345,0.0,0.0,0.0,0.0,6.3633,0.0,6.793,7.1367,7.4219,7.6211,7.7031,7.7773,7.8089,7.7872,7.5358,7.3713,7.3443,7.1052,6.8883,6.7176,6.6179,6.3655,5.9358,5.6098,0.0,0.0,0.0,0.0,0.0,0.0,0.0,0.0,0.0,0.0,0.0,0.0,0.0,0.0,0.0,0.0,0.0,0.0,0.0,0.0,0.0,0.0,0.0,0.0,0.0,0.0,0.0,0.0,5.1593,5.1945,0.0,0.0,5.1607,5.2182,5.2696,5.4566,5.6242,5.762,5.7989,5.8934,6.0673,6.0997,6.1435,6.1939,6.3103,6.4012,6.4653,6.5359,6.609,6.6692,6.6615,6.6577,6.6577,6.6577,6.6577,6.6461,6.4999,6.2935,6.0589,5.8796,5.7973,5.7764,5.7995,5.8704,5.9696,6.1055,6.1901,6.2233,6.1127,5.9595,5.8077,5.7807,5.844,5.9457,6.0319,6.2344,6.4609,6.6055,6.7031,6.7682,6.803,6.8157,6.8259,6.8398,6.7669,6.6651,6.5664,6.5087,6.4229,6.2616,6.5,6.6875,6.6094,6.789,7.0195,7.2539,7.4648,7.6172,7.6914,7.7617,7.7692,7.6927,7.5322,7.3889,7.2762,7.1811,7.0552,6.8844,6.7936,6.6577,6.4641,6.2323,5.781,0.0,0.0,0.0,0.0,0.0,0.0,0.0,0.0,0.0,0.0,0.0,0.0,0.0,0.0,0.0,0.0,0.0,0.0,0.0,0.0,0.0,0.0,0.0,0.0,0.0,0.0,5.2191,5.2895,5.3703,5.4031,5.3661,5.4391,5.5259,5.6121,5.8033,5.9518,6.0319,6.0642,6.145,6.2921,6.3229,6.3743,6.4564,6.5474,6.6167,6.6756,6.7282,6.7821,6.8385,6.8385,6.8385,6.8385,6.8385,6.8385,6.8347,6.7782,6.6244,6.4089,6.2627,6.1565,6.0849,6.145,6.2012,6.2743,6.4449,6.4847,6.4437,0.0,6.2791,6.2066,6.2066,6.2775,6.3758,6.4632,6.6009,6.7443,6.8271,6.8856,6.9305,6.9615,6.9498,6.9382,6.9536,6.9036,6.8625,6.8806,6.7762,6.6562,6.5547,6.7617,6.9062,6.789,6.9414,7.1211,7.2656,7.457,7.5976,7.6406,7.7257,7.7385,7.637,7.4533,7.3188,7.2668,7.1552,7.0552,6.9756,6.8064,6.6859,6.609,6.4141,5.9879,5.3192,0.0,0.0,0.0,0.0,0.0,0.0,0.0,0.0,0.0,0.0,0.0,0.0,0.0,0.0,0.0,0.0,0.0,0.0,0.0,0.0,0.0,0.0,0.0,4.9921,5.202,5.3793,5.472,5.69,5.7961,5.7131,5.7846,5.871,5.9488,6.0373,6.1266,6.2175,6.2949,6.3809,6.468,6.5551,6.632,6.7116,6.7988,6.8424,6.8433,6.8471,6.8471,6.8471,6.8471,6.8471,6.8471,6.8471,6.8471,6.8471,6.8471,6.8471,6.8164,6.5692,6.4193,6.3438,6.3438,6.4501,6.6205,6.7834,6.7859,6.7022,6.6218,6.541,6.4718,6.4718,6.541,6.632,6.7231,6.8167,6.9113,6.9986,7.0063,7.014,7.0975,7.1052,7.0898,7.0898,7.0898,7.0975,7.1129,6.9474,6.8046,6.8008,6.8867,6.957,6.9531,7.0234,0.0,7.1992,7.414,7.5586,7.5546,7.6708,7.716,7.6284,7.3044,7.1718,7.3418,7.0459,6.896,6.9794,6.6688,6.4576,6.3628,6.1257,5.9104,5.7159,0.0,0.0,0.0,0.0,0.0,0.0,0.0,0.0,0.0,0.0,0.0,0.0,0.0,0.0,0.0,0.0,0.0,0.0,0.0,0.0,0.0,0.0,5.2316,5.2535,5.4111,5.572,5.7136,5.7889,5.8219,5.7966,5.9242,6.0188,6.0435,6.1771,6.3295,6.4743,6.5051,6.5859,6.7333,6.7564,6.7806,6.8037,6.891,6.9333,6.9344,6.9948,7.0217,7.0217,7.0217,7.0217,7.0217,7.0217,7.0217,7.0217,7.0217,6.9871,6.919,6.7885,6.7218,6.7,6.7,6.7321,6.7768,6.8256,6.8229,6.801,6.7806,6.7537,6.7384,6.7384,6.7537,6.796,6.8794,6.9256,6.9679,7.0514,7.0667,7.0706,7.0937,7.0937,7.0898,7.0898,7.0898,7.0937,7.0975,7.1124,7.1125,7.0734,7.0898,7.1367,7.2109,0.0,0.0,0.0,7.5273,7.5311,7.4538,7.5195,7.5293,7.4341,7.388,0.0,0.0,7.3497,7.28,7.2492,7.0371,6.8313,6.6362,6.2742,0.0,0.0,0.0,0.0,0.0,0.0,0.0,0.0,0.0,0.0,0.0,0.0,0.0,0.0,0.0,0.0,0.0,0.0,0.0,0.0,0.0,0.0,0.0,5.2411,5.5073,5.6498,5.7104,5.7873,5.9196,5.9681,6.0027,6.0358,6.1304,6.2151,6.2858,6.3834,6.5141,6.6846,6.6974,6.759,6.8886,6.8948,6.9113,6.9421,6.9948,7.0179,7.0217,7.0667,7.0898,7.0898,7.0898,7.0898,0.0,7.0898,7.0898,7.0898,7.0898,7.0629,0.0,0.0,0.0,0.0,0.0,0.0,6.8998,6.9306,6.9421,6.9421,6.9421,6.9421,6.9421,6.9421,6.9421,6.9536,7.0063,7.0179,7.0294,7.0783,7.1168,7.1464,7.1464,7.1734,7.2003,7.2003,7.2003,7.2003,7.2003,0.0,0.0,7.2691,7.2417,7.2344,7.2695,7.3086,0.0,0.0,7.5742,7.5897,7.5617,7.6139,7.6244,7.5649,0.0,0.0,0.0,0.0,0.0,7.1497,0.0,0.0,0.0,0.0,0.0,0.0,0.0,0.0,0.0,5.3516,5.2656,0.0,0.0,0.0,0.0,0.0,0.0,0.0,0.0,0.0,0.0,0.0,0.0,0.0,0.0,0.0,0.0,5.4272,5.7511,6.055,6.0373,6.0219,6.0973,6.1766,6.2521,6.3214,6.3469,6.4215,6.5782,6.609,6.6885,0.0,0.0,0.0,0.0,0.0,7.0179,7.0898,7.0898,7.0898,7.0898,7.0898,7.0898,7.0898,7.0898,7.0898,7.0898,7.0898,7.0898,7.0898,7.1014,7.1052,7.0975,7.014,6.9344,6.8806,6.9536,0.0,0.0,0.0,0.0,0.0,7.0898,7.0898,7.0898,7.0898,7.0898,7.0937,7.1014,7.1052,7.1052,7.1168,7.1772,7.2349,7.2349,7.2954,7.3493,7.3493,7.3493,7.3493,7.3493,7.357,7.3735,7.4034,7.3549,7.2969,7.25,7.3164,0.0,7.4922,7.6133,7.7067,7.7638,0.0,0.0,7.8227,7.5582,7.461,7.6169,7.3351,7.0959,6.951,6.8531,6.7187,6.5548,6.3988,6.4116,6.6013,6.491,6.4666,6.5078,5.7539,5.6094,0.0,0.0,0.0,0.0,0.0,0.0,0.0,0.0,0.0,0.0,0.0,0.0,0.0,0.0,0.0,5.358,5.733,6.0204,6.0742,6.181,6.2642,6.2791,6.2974,6.3117,6.3271,6.4589,6.5538,6.5859,6.7141,6.8345,6.9371,6.9448,0.0,7.0629,7.0667,7.0744,7.0898,7.0898,7.0898,7.0898,0.0,0.0,7.0898,7.0898,7.0898,7.0898,7.0898,7.0898,7.0937,7.1657,7.1964,7.1849,7.1014,7.0552,7.0409,7.0629,7.0667,7.0706,7.086,7.0898,7.0898,7.0898,7.0898,7.0898,7.0898,7.0898,0.0,7.1734,7.1964,7.2118,0.0,7.3108,7.3262,7.3255,7.338,7.3495,7.3495,7.3495,7.3495,7.3495,7.4024,7.4524,7.4793,7.4249,7.4101,7.5,7.5898,7.6758,7.7617,7.8242,7.816,7.6987,7.7224,7.7254,7.654,7.654,7.6993,7.7959,7.6813,7.563,7.4639,7.3111,7.1497,6.9756,6.8116,6.7141,6.6846,6.6269,6.6001,6.6094,6.332,6.25,0.0,0.0,0.0,0.0,0.0,0.0,0.0,0.0,0.0,0.0,0.0,4.5274,0.0,0.0,5.3682,5.6604,5.9242,6.132,6.2526,6.3795,6.4603,6.4576,6.4589,6.4949,6.5782,6.6654,6.7346,6.7756,6.8575,6.9421,7.0256,7.0294,7.0475,7.0898,7.0898,7.0898,7.0898,7.1321,7.1541,7.158,7.2003,7.2195,7.2195,7.2195,7.2195,7.2195,7.2195,7.2195,7.2234,7.2668,7.2822,7.28,7.2377,7.1926,7.1618,7.2041,7.2195,7.2195,7.2195,7.2195,7.2195,7.2195,7.2195,7.2195,7.2195,7.2195,7.23,7.2723,7.285,7.2947,7.3399,7.3783,7.4091,7.4072,7.4418,7.4755,7.4755,7.5101,7.537,7.537,7.6053,7.6698,7.689,7.6686,7.666,7.6989,7.7851,7.8711,7.9492,7.9695,7.9563,7.9045,7.9107,7.9031,7.8577,7.8538,7.8531,7.8515,7.813,7.7707,7.7284,7.5245,7.3514,7.2234,7.0117,6.8616,6.777,6.768,6.7665,6.7656,6.7148,6.668,0.0,0.0,0.0,0.0,0.0,0.0,0.0,0.0,4.432,4.5013,4.6472,4.8528,5.139,5.3447,5.5813,5.9219,6.0757,6.232,6.4526,6.559,6.6244,6.659,6.6513,6.6898,6.8257,6.8565,6.8924,6.964,6.9833,7.0217,7.086,7.0898,7.0975,7.1129,7.1129,7.1206,7.1426,7.208,7.2426,7.2465,7.3157,7.3493,7.3493,7.3493,7.3493,7.3493,7.3493,7.3609,7.3724,7.3563,7.3601,7.3724,7.3724,7.3301,7.2734,7.3301,7.3493,7.3493,7.3493,7.3493,7.3493,7.3493,7.3493,7.3493,7.3493,7.3493,7.3532,7.3686,7.3889,7.4024,7.4187,7.4832,7.5408,7.5408,7.5976,7.6506,7.6506,7.7044,7.7506,7.7545,7.8045,7.8575,7.8729,7.9075,7.916,7.8543,7.9297,8.0114,8.0626,8.0648,8.0862,8.1323,8.1208,8.1093,8.1093,8.0446,7.9754,7.9069,7.8838,7.8723,7.8746,7.6476,7.4889,7.4225,7.1745,7.0025,6.9167,6.9143,6.9067,6.8898,6.9296,6.9101,4.0773,0.0,0.0,4.1792,4.2393,4.3705,0.0,0.0,4.8424,5.1472,5.3398,5.494,5.6078,5.8308,6.0089,6.0589,6.2642,6.4526,6.5628,6.6461,6.7539,6.9102,6.8575,6.8191,6.8383,6.9102,6.9602,6.9679,7.0333,7.0821,7.0898,7.0898,7.1245,7.2041,7.2041,7.2454,7.3185,7.3328,7.335,7.338,7.3457,7.3495,7.3495,7.3495,7.3495,7.3495,7.3495,7.388,7.4524,7.3803,7.3918,7.4562,7.4562,7.4524,7.437,7.3726,7.3495,7.3495,7.3495,7.3495,7.3495,7.3495,7.3495,7.3495,7.3495,7.3495,7.3649,7.437,7.511,7.5898,7.6688,7.7468,7.8074,7.8074,7.8151,7.8228,7.8228,7.8305,7.8353,7.8339,7.8454,7.8492,7.8531,7.9485,8.0043,7.9363,8.0156,8.0804,8.0705,8.1214,8.1516,8.14,8.1208,8.1093,8.1093,8.1016,8.09,8.0823,8.0061,7.9677,7.9638,7.7923,7.6955,7.6852,7.4361,7.264,7.1783,7.0618,6.9649,6.8911,6.9316,6.9453,4.5565,0.0,0.0,0.0,4.7951,4.8718,5.0624,5.147,5.2511,5.4919,5.6367,5.7622,5.8953,6.0487,6.2036,0.0,6.4666,6.582,6.7179,6.8078,6.8898,6.9602,6.9794,6.9871,6.9871,7.0179,7.0371,7.0371,7.0706,7.1129,7.1618,7.1657,7.2041,7.2916,7.2937,7.314,7.3514,7.3937,7.4207,7.4187,7.4716,7.4947,7.4947,7.4947,7.4947,7.4947,7.4947,7.5139,7.5447,7.5668,7.5899,7.6245,7.6736,7.6929,7.6775,7.5408,7.4947,7.4947,7.4947,7.4947,7.5024,7.5553,7.5707,7.5822,7.6245,7.6399,7.6476,7.6813,7.715,7.7526,7.79,7.8237,7.8498,7.8515,7.8515,7.8515,7.8515,7.89,7.9246,7.9261,7.9677,8.0023,8.0023,8.0669,8.105,8.0769,8.1304,8.1635,8.13,8.1516,8.1554,8.1246,8.1554,8.1593,8.1131,8.1516,8.1593,8.1131,8.0785,8.0561,8.0561,7.8908,7.7985,7.8006,7.5515,7.4014,7.3668,7.2839,7.222,7.19,7.228,7.2461,4.8403,0.0,0.0,5.153,5.2607,5.3128,5.3763,5.4572,5.5668,5.7341,5.8389,5.9511,6.118,6.2175,0.0,6.5551,6.6064,6.6821,6.8527,6.9283,6.9794,6.9986,7.0552,7.0898,7.0898,7.0898,7.0898,7.0898,7.1129,7.1541,7.2157,7.2426,7.2965,7.3801,7.3832,7.3957,7.4187,7.4793,7.5062,7.5062,7.5707,7.613,7.6361,7.6583,7.6698,7.6698,7.6698,7.6698,7.6736,7.7352,7.7622,7.7669,7.8276,7.8507,7.8353,7.713,7.6707,7.6698,7.6698,7.6698,7.6813,7.7429,7.7622,7.7746,7.8314,7.8507,7.8507,7.8507,7.8661,7.8853,7.8838,7.9054,7.9199,7.9215,7.9223,7.9223,7.9223,7.9908,8.0484,8.0484,8.117,8.1816,8.1816,8.2086,8.2351,8.237,8.2629,8.261,8.2108,8.2169,8.2093,8.1823,8.2324,8.2401,8.1823,8.2324,8.2401,8.1823,8.1785,8.1785,8.1785,8.0592,7.9785,7.9554,7.7515,7.613,7.5438,7.4956,7.4463,7.4003,7.4427,7.4609,0.0,0.0,5.1003,5.2735,5.4353,5.5588,5.5626,5.6313,5.742,5.9081,6.0127,6.1243,6.2925,6.3924,6.4834,6.5743,6.6576,6.7675,6.9448,6.9679,6.9986,7.0783,7.0898,7.0898,0.0,7.0898,7.0898,7.0898,7.1695,7.2157,7.2195,7.2986,7.3841,7.4639,7.4678,7.5062,7.5938,7.5938,7.5976,7.5976,7.5976,7.6438,7.7275,7.8074,7.8421,7.8421,7.8421,7.8421,7.8421,7.8421,7.8468,7.8492,7.8492,7.8531,7.8492,7.8454,7.8438,7.8421,7.8421,7.8421,7.8421,7.8421,7.8438,7.8492,7.8492,7.8531,7.8531,7.8531,7.9107,7.9754,7.9754,8.0369,8.1016,8.1016,8.1016,8.1016,8.1016,8.1662,8.2201,8.2201,8.2925,8.3503,8.3503,8.3695,8.3885,8.4089,8.4142,8.3848,8.307,8.3296,8.3516,8.3516,8.3555,8.3555,8.3516,8.3555,8.3555,8.3516,8.3516,8.3516,8.3516,8.3478,8.3054,8.2208,8.1323,7.9669,7.7207,7.6775,7.5654,7.4003,7.4427,7.4609,0.0,0.0,5.3759,5.6038,5.7021,5.7697,5.8819,5.9296,5.9988,6.1689,6.319,6.4359,6.491,6.6167,6.741,6.8283,6.8667,6.9229,7.0333,7.0514,7.0591,7.086,7.0898,0.0,0.0,0.0,0.0,7.0898,7.1695,7.2465,7.3024,7.3841,7.4716,7.5553,7.5592,7.5976,7.6852,7.687,7.7147,7.7647,7.766,7.7814,7.81,7.8369,7.8485,7.8485,7.8485,7.8485,7.8523,7.9131,7.9369,7.9415,7.9984,8.0215,8.0215,8.0215,8.0246,8.0085,7.89,7.8485,7.86,7.9169,7.9369,7.9453,8.0061,8.0215,8.0215,8.0215,8.0823,8.1439,8.1439,8.2124,8.2771,8.2771,8.2771,8.2771,8.2771,8.2964,8.3163,8.3138,8.3407,8.3599,8.3599,8.3753,8.3991,8.4167,8.4181,8.4029,8.3656,8.3595,8.3593,8.3593,8.4132,8.4247,8.3632,8.4132,8.4209,8.3632,8.3593,8.3593,8.3593,8.3593,8.3439,8.317,8.2324,8.1208,7.9823,7.9345,7.8525,7.7389,7.7786,7.7969,0.0,5.5434,5.6529,5.9388,6.0104,6.0396,6.1458,6.1704,6.2065,6.346,6.4666,6.5526,6.5846,6.7025,6.8309,6.9489,6.9963,7.0409,7.1245,7.1387,7.1245,7.0937,7.1168,0.0,0.0,0.0,0.0,7.1387,7.2454,7.335,7.3918,7.4716,7.5592,7.6438,7.6438,7.6861,7.7707,7.7724,7.8,7.8492,7.8844,7.8968,7.8992,7.93,7.9415,7.9415,7.9415,7.9415,7.9453,8.0023,8.0254,8.0331,8.09,8.1093,8.1131,8.14,8.1516,8.1323,7.9908,7.9415,7.9492,8.0061,8.0446,8.0823,8.1362,8.1778,8.2009,8.2009,8.2355,8.274,8.2747,8.317,8.3625,8.3625,8.3625,8.3625,8.3625,8.3856,8.4055,8.4028,8.4297,8.4489,8.4489,8.4676,8.4856,8.487,8.4949,8.4843,8.4433,8.4445,8.4478,8.4478,8.4978,8.5093,8.4555,8.5016,8.5093,8.4516,8.4478,8.4478,8.4478,8.4478,8.4362,8.4055,8.3516,8.267,8.1516,8.1308,8.0807,8.0036,8.0363,8.0547,5.679,5.8481,5.9311,6.2521,6.3315,6.3315,6.3392,6.3358,6.3553,6.4462,6.4641,6.4847,0.0,0.0,6.7703,6.9344,7.0333,7.1206,7.2003,7.2118,7.1849,0.0,0.0,0.0,0.0,0.0,0.0,7.2388,0.0,7.4725,7.4755,7.5592,7.6438,7.7314,7.7352,7.7746,7.8569,7.8608,7.8608,7.8631,7.946,7.9884,7.9908,8.0746,8.1131,8.117,8.1131,8.1131,8.1208,8.117,8.117,8.1208,8.1208,8.1208,8.1323,8.2086,8.2355,8.2278,8.1477,8.1246,8.1208,8.1208,8.1739,8.2355,8.2355,8.2932,8.358,8.358,8.3618,8.3664,8.3643,8.372,8.3759,8.3759,8.3759,8.3759,8.3759,8.4374,8.4983,8.4983,8.556,8.6094,8.6094,8.6324,8.6404,8.6142,8.6321,8.6209,8.533,8.5747,8.6094,8.6094,8.6094,8.6094,8.6094,8.6094,8.6094,8.6094,8.6094,8.6094,8.6094,8.6094,8.5747,8.4978,8.4978,8.4132,8.2439,8.2631,8.2419,8.1812,8.2042,8.2226,5.8619,6.0556,6.2208,6.3078,6.3295,6.3641,6.496,6.4218,6.3707,6.5257,6.5064,6.4654,0.0,0.0,0.0,6.8652,6.997,0.0,7.1209,7.1255,0.0,0.0,0.0,7.2465,7.314,7.3909,0.0,0.0,7.4476,7.4976,7.563,7.6506,7.7352,7.8151,7.8207,7.8569,7.9453,8.01,8.0439,8.0439,8.0662,8.0777,8.0785,8.1016,8.1439,8.197,8.1362,8.1816,8.2925,8.224,8.2355,8.2964,8.2964,8.2964,8.3002,8.3195,8.3279,8.322,8.3028,8.2978,8.2964,8.2964,8.3118,8.3272,8.3253,8.3445,8.3599,8.3599,8.4061,8.4561,8.4599,8.5022,8.5445,8.5445,8.5445,8.5445,8.5445,8.5637,8.5786,8.5786,8.5978,8.6094,8.6094,8.6324,8.6408,8.6159,8.6336,8.6363,8.594,8.6017,8.6094,8.6094,8.6094,8.6094,8.6094,8.6094,8.6094,8.6094,8.6094,8.6094,8.6094,8.6094,8.6017,8.5786,8.5786,8.5286,8.4247,8.4407,8.4188,8.3564,8.3809,8.4023,6.1195,6.2771,6.4039,6.4795,6.4987,6.5141,6.5743,6.5154,6.4398,6.4243,6.4114,0.0,0.0,0.0,0.0,0.0,0.0,0.0,7.1468,7.1822,7.208,0.0,7.285,0.0,7.3995,7.4793,7.5408,0.0,7.5861,7.6053,7.6544,7.7361,7.8207,7.9045,7.9054,7.9477,8.0369,8.0862,8.1093,8.1093,8.1093,8.1093,8.1093,8.1477,8.1893,8.2278,0.0,8.2708,8.3541,8.3054,8.317,8.3593,8.3593,8.3593,8.3632,8.4048,8.417,8.422,8.4566,8.4709,8.4587,8.3824,8.3894,8.417,8.4176,8.4412,8.4714,8.4714,8.506,8.5406,8.5406,8.5786,8.6094,8.6094,8.6094,8.6094,8.6094,8.6094,8.6094,8.6094,8.6094,8.6094,8.6094,8.6209,8.6286,8.6132,8.6247,8.6286,8.6132,8.6094,8.6094,8.6094,8.6094,8.6094,8.6094,8.6094,8.6094,8.6094,8.6094,8.6286,8.6671,8.6671,8.6671,8.6671,8.7055,8.6824,8.6017,8.6132,8.6017,8.5735,8.5516,8.5526,6.3949,6.4872,6.5295,6.6885,6.7269,6.7077,6.6244,6.5781,6.4872,6.2574,0.0,0.0,6.3084,0.0,6.7369,6.9064,0.0,7.1772,7.2003,7.2685,7.2993,7.258,7.3822,7.4755,7.487,7.5668,7.6506,7.7237,7.7506,7.7622,7.7622,7.8292,7.9069,7.9946,7.9961,8.0346,8.1093,8.1093,8.1093,8.1093,8.1208,8.1246,8.1285,8.2086,8.2547,8.2701,0.0,0.0,8.3926,8.383,8.3835,8.3951,8.3951,8.3951,8.4028,8.4791,8.506,8.5176,8.5863,8.6094,8.5863,8.4374,8.4412,8.506,8.506,8.5522,8.6094,8.6094,8.6094,8.6094,8.6094,8.6094,8.6094,8.6094,8.6094,8.6132,8.6247,8.6363,8.644,8.644,8.6363,8.6286,8.6286,8.617,8.6132,8.6247,8.6286,8.6324,8.644,8.6247,8.6132,8.6247,8.6286,8.6324,8.644,8.644,8.644,8.644,8.644,8.6786,8.7555,8.7555,8.7555,8.7555,8.8286,8.8325,8.7555,8.7594,8.7704,8.7853,8.719,8.6954,6.532,6.6167,6.6885,6.7911,6.8167,6.796,6.7088,6.5257,0.0,0.0,0.0,6.0602,6.2021,6.3806,0.0,6.728,0.0,0.0,0.0,0.0,7.2091,0.0,0.0,0.0,0.0,0.0,0.0,0.0,0.0,0.0,0.0,7.9523,7.9984,8.0862,8.0862,8.0939,8.1093,8.1093,8.1093,8.1093,8.1778,8.2086,8.2124,8.3002,8.3779,8.4407,0.0,0.0,8.5593,8.4945,8.506,8.567,8.567,8.567,8.5709,8.5863,8.5901,8.5901,8.6055,8.6094,8.6055,8.5786,8.5786,8.5901,8.5901,8.5978,8.6094,8.6094,8.6094,8.6094,8.6094,8.6094,8.6094,8.6094,8.6094,8.6286,8.7012,8.7743,8.8238,8.8238,8.7666,8.7166,8.7166,8.6555,8.6324,8.7089,8.7166,8.7435,8.8161,8.7012,8.6363,8.7089,8.7166,8.7473,8.8199,8.8238,8.8243,8.8282,8.8282,8.8286,8.8479,8.8479,8.8479,8.8479,8.8632,8.8632,8.8479,8.8666,8.8743,8.8782,8.8804,8.8829,6.5897,6.6821,6.7987,6.8859,6.9064,6.851,6.6304,0.0,0.0,0.0,0.0,5.9755,6.0612,0.0,0.0,0.0,0.0,0.0,0.0,0.0,0.0,0.0,0.0,0.0,0.0,0.0,0.0,0.0,0.0,0.0,0.0,8.0215,8.0669,8.1093,8.1093,8.1093,8.1093,8.1516,8.1739,8.1739,8.2586,8.2971,8.2984,8.3862,8.4516,8.4907,0.0,0.0,0.0,8.5709,8.5747,8.6094,8.6094,8.6094,8.6094,8.6094,8.6094,8.617,8.6594,8.6781,8.6858,8.7319,8.6858,8.617,8.6632,8.6781,8.6896,8.7319,8.7435,8.7435,8.7435,8.7435,8.7435,8.7435,8.7435,8.7589,8.8017,8.8402,8.8709,8.8709,8.8363,8.8094,8.8051,8.7704,8.7589,8.8007,8.8055,8.8214,8.8671,8.7944,8.7598,8.8012,8.8055,8.8252,8.8671,8.8709,8.8709,8.8714,8.8714,8.8867,8.9325,8.9325,8.9325,8.9325,8.9787,8.9787,8.9325,8.9402,8.9517,8.9667,8.9321,8.9244,6.6744,6.7679,6.8883,6.9756,6.9948,6.9036,6.5405,6.4449,0.0,0.0,0.0,5.9117,5.9704,0.0,0.0,0.0,0.0,0.0,0.0,0.0,0.0,0.0,0.0,0.0,0.0,0.0,0.0,0.0,0.0,0.0,0.0,0.0,8.117,8.1323,8.1362,8.1439,8.1662,8.224,8.2586,8.2593,8.3471,8.3862,8.3912,8.4791,8.5176,0.0,0.0,0.0,0.0,8.6094,8.6094,8.6094,8.6094,8.6094,8.6094,8.6094,8.6209,8.6478,8.7166,8.7512,8.7786,8.8474,8.7781,8.6781,8.7473,8.7666,8.7786,8.8512,8.8705,8.8705,8.8705,8.8705,8.8705,8.8705,8.882,8.8974,8.8948,8.9102,8.9217,8.9217,8.9063,8.8983,8.8974,8.8782,8.8743,8.8897,8.8944,8.9025,8.9217,8.9217,8.9252,8.9205,8.906,8.9025,8.9217,8.9217,8.9217,8.9217,8.9217,8.9521,9.0171,9.0171,9.0171,9.0171,9.0864,9.0864,9.0171,9.021,9.0364,9.0552,8.9936,8.9729,6.8744,6.9487,6.9794,7.0591,7.0783,6.9717,6.5548,0.0,0.0,5.7884,5.7131,5.794,6.0242,0.0,0.0,0.0,0.0,6.7346,0.0,0.0,0.0,0.0,0.0,0.0,0.0,0.0,0.0,0.0,0.0,0.0,0.0,0.0,8.1439,8.2163,8.2201,8.2547,8.3349,8.3426,8.3471,8.349,8.4368,8.4791,8.483,8.5599,8.5978,0.0,0.0,0.0,0.0,8.6094,8.6094,8.6094,8.6094,8.6094,8.6094,8.6094,8.6594,8.7281,8.7358,8.794,8.8602,8.8679,8.8594,8.8469,8.8546,8.8556,8.8602,8.8679,8.8679,8.8679,8.8679,8.8679,8.8679,8.8679,8.929,8.979,8.979,9.0406,9.0979,9.0979,9.0329,8.979,8.979,8.9213,8.8948,8.9675,8.979,9.0098,9.0902,9.0979,9.0979,9.0979,9.0252,9.0098,9.0902,9.0979,9.0979,9.0979,9.0979,9.1018,9.1095,9.1095,9.1095,9.1095,9.1171,9.1171,9.1095,9.1248,9.1364,9.1364,9.1556,9.1629,6.8614,7.0409,7.1926,7.1734,7.1695,7.0294,6.5022,0.0,0.0,5.7208,5.6609,5.7478,5.9018,6.0111,6.1574,6.3945,6.523,6.6898,6.9756,0.0,0.0,0.0,0.0,0.0,0.0,0.0,0.0,0.0,0.0,0.0,0.0,0.0,0.0,8.3079,8.3093,8.3253,8.3599,8.4132,8.4401,8.4374,8.5214,8.5599,8.5599,8.594,0.0,0.0,0.0,0.0,0.0,8.6094,8.6094,8.617,8.6671,8.6896,8.6973,8.7473,8.7858,8.8276,8.8748,8.9137,8.9486,9.0021,9.021,9.0129,8.9556,8.9406,8.9524,9.0059,9.0213,9.0213,9.0213,9.0213,9.0213,9.0213,9.0444,9.0675,9.0675,9.0979,9.121,9.121,9.0941,9.0675,9.0675,9.0406,9.029,9.0598,9.0675,9.0825,9.1171,9.121,9.121,9.121,9.0902,9.0825,9.1171,9.121,9.121,9.121,9.121,9.121,9.121,9.121,9.121,9.121,9.121,9.121,9.121,9.1287,9.1441,9.1745,9.186,9.2052,6.8894,7.1102,7.2965,7.236,7.2014,7.0371,0.0,0.0,0.0,5.7362,5.6746,5.7324,5.8445,5.9826,6.1343,6.3045,6.4768,6.6859,6.9655,7.1294,0.0,0.0,0.0,0.0,0.0,0.0,0.0,0.0,0.0,0.0,0.0,0.0,0.0,8.3971,8.3984,8.4105,8.4335,8.4945,8.5253,8.5253,8.5824,8.6094,8.6094,8.6094,0.0,0.0,0.0,0.0,0.0,8.6094,8.6247,8.6555,8.7166,8.7589,8.7863,8.8474,8.8859,8.9128,8.9675,9.0059,9.0367,9.1018,9.121,9.1095,9.0444,9.029,9.0406,9.1056,9.121,9.121,9.121,9.121,9.121,9.121,9.121,9.121,9.121,9.121,9.121,9.121,9.121,9.121,9.121,9.121,9.121,9.121,9.121,9.121,9.121,9.121,9.121,9.121,9.121,9.121,9.121,9.121,9.121,9.121,9.121,9.121,9.121,9.121,9.121,9.121,9.121,9.121,9.121,9.121,9.1402,9.1784,9.1863,9.2143,6.9951,7.1526,7.2208,7.2208,7.1535,6.9794,0.0,0.0,6.1362,5.8792,5.7576,5.7499,5.9198,6.0211,6.1343,6.3045,6.4768,6.7064,7.0414,0.0,0.0,0.0,0.0,0.0,0.0,0.0,0.0,0.0,0.0,0.0,0.0,0.0,0.0,0.0,8.4907,8.5253,8.6055,8.6094,8.6094,8.6094,8.6094,8.6094,8.6094,0.0,0.0,0.0,0.0,0.0,0.0,8.6094,8.6594,8.7396,8.7396,8.794,8.8717,8.8717,8.9178,8.9906,8.9906,9.0444,9.121,9.121,9.121,9.121,9.121,9.121,9.121,9.121,9.121,9.121,9.121,9.121,9.121,9.121,9.121,9.121,9.121,9.121,9.121,9.121,9.121,9.121,9.121,9.121,9.121,9.121,9.121,9.121,9.121,9.121,9.121,9.121,9.121,9.121,9.121,9.121,9.121,9.121,9.121,9.121,9.121,9.121,9.121,9.121,9.121,9.121,9.121,9.121,9.1287,9.1518,9.1784,9.2161,6.8433,7.0249,7.118,7.0613,6.9826,6.8229,6.4564,6.2411,6.0657,5.8715,5.7588,5.7351,5.845,5.9335,6.0642,6.2949,6.4257,6.6384,0.0,0.0,0.0,0.0,0.0,0.0,0.0,0.0,0.0,0.0,0.0,0.0,0.0,0.0,0.0,0.0,0.0,8.5863,8.6094,8.6094,8.6094,8.6094,8.6094,8.6094,0.0,0.0,0.0,0.0,0.0,0.0,0.0,8.6709,8.7166,8.7512,8.8671,8.929,8.9563,9.0175,9.0559,9.0787,9.0787,9.0979,9.121,9.121,9.121,9.121,9.121,9.121,9.121,9.121,9.121,9.121,9.121,9.121,9.121,9.121,9.121,9.121,9.121,9.121,9.121,9.121,9.121,9.121,9.121,9.121,9.121,9.121,9.121,9.121,9.121,9.121,9.121,9.121,9.121,9.121,9.121,9.121,9.121,9.121,9.121,9.121,9.121,9.121,9.121,9.121,9.121,9.121,9.121,9.121,9.1402,9.1784,9.1995,9.2287,6.6526,6.869,6.9816,6.9316,6.8575,6.7025,6.3641,6.1527,5.9935,5.8578,5.7604,5.7359,5.8519,5.9435,6.0804,6.3358,6.427,6.6077,0.0,0.0,0.0,0.0,0.0,0.0,0.0,0.0,0.0,0.0,0.0,0.0,0.0,0.0,0.0,0.0,0.0,0.0,8.6094,8.6094,8.6094,8.6094,8.6094,0.0,0.0,0.0,0.0,0.0,0.0,0.0,0.0,8.7666,8.8051,8.844,8.9483,9.0098,9.0444,9.1018,9.121,9.121,9.121,9.121,9.121,9.121,9.121,9.121,9.121,9.121,9.121,9.121,9.121,9.121,9.121,9.121,9.121,9.121,9.121,9.121,9.121,9.121,9.121,9.121,9.121,9.121,9.121,9.121,9.121,9.121,9.121,9.121,9.121,9.121,9.121,9.121,9.121,9.121,9.121,9.121,9.121,9.121,9.121,9.121,9.121,9.121,9.121,9.121,9.121,9.121,9.121,9.1287,9.1518,9.1899,9.2112,9.2342,0.0,6.6615,6.7975,6.8013,6.7333,6.5846,6.2714,6.0589,0.0,5.8424,5.7604,5.7497,5.9196,6.0195,6.1649,6.4209,6.4654,0.0,0.0,0.0,0.0,0.0,0.0,0.0,0.0,0.0,0.0,0.0,0.0,0.0,0.0,0.0,0.0,0.0,0.0,0.0,0.0,0.0,8.6094,0.0,0.0,0.0,0.0,0.0,0.0,0.0,0.0,0.0,0.0,8.8777,8.9244,8.9906,8.9983,9.0482,9.121,9.121,9.121,9.121,9.121,9.121,9.121,9.121,9.121,9.121,9.121,9.121,9.121,9.121,9.121,9.121,9.121,9.121,9.121,9.121,9.121,9.121,9.121,9.121,9.121,9.121,9.121,9.121,9.121,9.121,9.121,9.121,9.121,9.121,9.121,9.121,9.121,9.121,9.121,9.121,9.121,9.121,9.121,9.121,9.121,9.121,9.121,9.121,9.121,9.121,9.121,9.121,9.121,9.1402,9.1595,9.1899,9.2091,9.2316,5.9579,0.0,6.3707,6.4347,6.3372,6.2074,0.0,5.9265,5.7747,5.8192,5.7593,5.7495,5.9194,6.0234,6.1636,6.4185,6.5154,6.683,0.0,0.0,0.0,0.0,0.0,0.0,0.0,0.0,0.0,0.0,0.0,0.0,0.0,0.0,0.0,0.0,0.0,0.0,0.0,0.0,0.0,0.0,0.0,0.0,0.0,0.0,0.0,0.0,0.0,0.0,0.0,8.9367,8.9713,8.9983,9.0598,9.1018,9.121,9.121,9.121,9.121,9.121,9.121,9.121,9.121,9.121,9.121,9.121,9.121,9.121,9.121,9.121,9.121,9.121,9.121,9.121,9.121,9.121,9.121,9.121,9.121,9.121,9.121,9.121,9.121,9.121,9.121,9.121,9.121,9.121,9.121,9.121,9.121,9.121,9.121,9.121,9.121,9.121,9.121,9.121,9.121,9.121,9.121,9.121,9.121,9.121,9.121,9.121,9.121,9.121,9.1248,9.1479,9.1899,9.171,9.2005,5.7461,5.9881,6.2194,6.2642,6.205,6.1189,6.0404,5.8517,5.7016,5.7093,5.6746,5.6939,5.8638,5.9627,6.131,6.4638,6.5897,0.0,0.0,0.0,0.0,0.0,0.0,0.0,0.0,0.0,0.0,0.0,0.0,0.0,0.0,0.0,0.0,0.0,0.0,0.0,0.0,0.0,0.0,0.0,0.0,0.0,0.0,0.0,0.0,0.0,0.0,0.0,8.9906,9.0329,9.0482,9.0521,9.1018,9.121,9.121,9.121,9.121,9.121,9.121,9.121,9.121,9.121,9.121,9.121,9.121,9.121,9.121,9.121,9.121,9.121,9.121,9.121,9.121,9.121,9.121,9.121,9.121,9.121,9.121,9.121,9.121,9.121,9.121,9.121,9.121,9.121,9.121,9.121,9.121,9.121,9.121,9.121,9.121,9.121,9.121,9.121,9.121,9.121,9.121,9.121,9.121,9.121,9.121,9.121,9.121,9.121,9.121,9.1287,9.1518,9.1899,9.1835,9.2091,5.6939,5.9617,6.2021,6.1766,6.1704,6.1266,5.9678,5.8,5.6571,5.5857,5.5934,5.6708,5.8522,5.9758,6.1876,6.5974,0.0,0.0,0.0,0.0,0.0,0.0,0.0,0.0,0.0,0.0,0.0,0.0,0.0,0.0,0.0,0.0,0.0,0.0,0.0,0.0,0.0,0.0,0.0,0.0,0.0,0.0,0.0,0.0,0.0,0.0,0.0,0.0,9.121,9.121,9.121,9.121,9.121,9.121,9.121,9.121,9.121,9.121,9.121,9.121,9.121,9.121,9.121,9.121,9.121,9.121,9.121,9.121,9.121,9.121,9.121,9.121,9.121,9.121,9.121,9.121,9.121,9.121,9.121,9.121,9.121,9.121,9.121,9.121,9.121,9.121,9.121,9.121,9.121,9.121,9.121,9.121,9.121,9.121,9.121,9.121,9.121,9.121,9.121,9.121,9.121,9.121,9.121,9.121,9.121,9.121,9.121,9.1364,9.1595,9.1857,9.2011,9.2256,5.7653,6.0046,6.1742,6.0263,5.9881,5.9662,5.871,5.7131,5.5857,5.5742,5.6977,5.8792,6.1092,6.3461,6.6189,0.0,0.0,0.0,0.0,0.0,0.0,0.0,0.0,0.0,0.0,0.0,0.0,0.0,0.0,0.0,0.0,0.0,0.0,0.0,0.0,0.0,0.0,0.0,0.0,0.0,0.0,0.0,0.0,0.0,0.0,0.0,0.0,0.0,9.121,9.121,9.121,9.121,9.121,9.121,9.121,9.121,9.121,9.121,9.121,9.121,9.121,9.121,9.121,9.121,9.121,9.121,9.121,9.121,9.121,9.121,9.121,9.121,9.121,9.121,9.121,9.121,9.121,9.121,9.121,9.121,9.121,9.121,9.121,9.121,9.121,9.121,9.121,9.121,9.121,9.121,9.121,9.121,9.121,9.121,9.121,9.121,9.121,9.121,9.121,9.121,9.121,9.121,9.121,9.121,9.121,9.121,9.121,9.1248,9.1364,9.1553,9.1582,9.1832,5.6708,5.8765,6.0734,6.0891,6.2298,6.3522,6.3158,6.2078,6.0822,5.943,6.0184,6.1588,6.3166,0.0,6.7552,7.2178,0.0,0.0,0.0,0.0,0.0,0.0,0.0,0.0,0.0,0.0,0.0,0.0,0.0,0.0,0.0,0.0,0.0,0.0,0.0,0.0,0.0,0.0,0.0,0.0,0.0,0.0,9.0598,0.0,0.0,0.0,0.0,9.121,9.121,9.121,9.121,9.121,9.121,9.121,9.121,9.121,9.121,9.121,9.121,9.121,9.121,9.121,9.121,9.121,9.121,9.121,9.121,9.121,9.121,9.121,9.121,9.121,9.121,9.121,9.121,9.121,9.121,9.121,9.121,9.121,9.121,9.121,9.121,9.121,9.121,9.121,9.121,9.121,9.121,9.121,9.121,9.121,9.121,9.121,9.121,9.121,9.121,9.121,9.121,9.121,9.121,9.121,9.121,9.121,9.121,9.121,9.121,9.121,9.1287,9.1514,9.1486,9.1742,5.6456,5.8335,6.0507,6.226,6.4347,6.6126,0.0,0.0,0.0,0.0,0.0,0.0,0.0,6.7176,0.0,0.0,0.0,0.0,0.0,0.0,0.0,0.0,0.0,0.0,0.0,0.0,0.0,0.0,0.0,0.0,0.0,0.0,0.0,0.0,0.0,0.0,0.0,0.0,0.0,0.0,0.0,9.0521,9.121,9.121,9.121,9.121,9.121,9.121,9.121,9.121,9.121,9.121,9.121,9.121,9.121,9.121,9.121,9.121,9.121,9.121,9.121,9.121,9.121,9.121,9.121,9.121,9.121,9.121,9.121,9.121,9.121,9.121,9.121,9.121,9.121,9.121,9.121,9.121,9.121,9.121,9.121,9.121,9.121,9.121,9.121,9.121,9.121,9.121,9.121,9.121,9.121,9.121,9.121,9.121,9.121,9.121,9.121,9.121,9.121,9.121,9.121,9.121,9.121,9.121,9.121,9.121,9.121,9.121,9.1287,9.1441,9.1479,9.1721,5.8792,6.053,6.2326,6.3993,6.3437,0.0,6.6394,6.466,0.0,6.5207,0.0,0.0,0.0,0.0,0.0,0.0,0.0,0.0,0.0,0.0,0.0,0.0,0.0,0.0,0.0,0.0,0.0,0.0,0.0,0.0,0.0,0.0,0.0,0.0,0.0,0.0,0.0,0.0,0.0,0.0,9.0675,9.1133,9.121,9.121,9.121,9.121,9.121,9.121,9.121,9.121,9.121,9.121,9.121,9.121,9.121,9.121,9.121,9.121,9.121,9.121,9.121,9.121,9.121,9.121,9.121,9.121,9.121,9.121,9.121,9.121,9.121,9.121,9.121,9.121,9.121,9.121,9.121,9.121,9.121,9.121,9.121,9.121,9.121,9.121,9.121,9.121,9.121,9.121,9.121,9.121,9.121,9.121,9.121,9.121,9.121,9.121,9.121,9.121,9.121,9.121,9.121,9.121,9.121,9.121,9.121,9.121,9.121,9.121,9.121,9.1248,9.1402,9.1626,5.6967,5.9579,6.2502,6.417,6.4908,0.0,0.0,6.9728,7.0057,7.0508,7.092,0.0,0.0,0.0,0.0,0.0,0.0,0.0,0.0,0.0,0.0,0.0,0.0,0.0,0.0,0.0,0.0,0.0,0.0,0.0,0.0,0.0,0.0,0.0,0.0,0.0,0.0,0.0,0.0,0.0,9.1056,9.121,9.121,9.121,9.121,9.121,9.121,9.121,9.121,9.121,9.121,9.121,9.121,9.121,9.121,9.121,9.121,9.121,9.121,9.121,9.121,9.121,9.121,9.121,9.121,9.121,9.121,9.121,9.121,9.121,9.121,9.121,9.121,9.121,9.121,9.121,9.121,9.121,9.121,9.121,9.121,9.121,9.121,9.121,9.121,9.121,9.121,9.121,9.121,9.121,9.121,9.121,9.121,9.121,9.121,9.121,9.121,9.121,9.121,9.121,9.121,9.121,9.121,9.121,9.121,9.121,9.121,9.121,9.121,9.121,9.1287,9.1518,5.7389,6.0256,6.3698,6.537,0.0,0.0,7.1094,7.2234,7.2928,7.3735,7.4091,0.0,0.0,0.0,0.0,0.0,0.0,0.0,0.0,0.0,0.0,0.0,0.0,0.0,0.0,0.0,0.0,0.0,0.0,0.0,0.0,0.0,0.0,0.0,0.0,0.0,0.0,0.0,0.0,0.0,9.121,9.121,9.121,9.121,9.121,9.121,9.121,9.121,9.121,9.121,9.121,9.121,9.121,9.121,9.121,9.121,9.121,9.121,9.121,9.121,9.121,9.121,9.121,9.121,9.121,9.121,9.121,9.121,9.121,9.121,9.121,9.121,9.121,9.121,9.121,9.121,9.121,9.121,9.121,9.121,9.121,9.121,9.121,9.121,9.121,9.121,9.121,9.121,9.121,9.121,9.121,9.121,9.121,9.121,9.121,9.121,9.121,9.121,9.121,9.121,9.121,9.121,9.121,9.121,9.121,9.121,9.121,9.121,9.121,9.121,9.121,9.1402,6.1015,6.3257,6.6306,0.0,0.0,0.0,7.2739,7.0898,6.9663,7.3841,0.0,7.6015,0.0,0.0,0.0,0.0,0.0,0.0,0.0,0.0,0.0,0.0,0.0,0.0,0.0,0.0,0.0,0.0,0.0,0.0,0.0,0.0,0.0,0.0,0.0,0.0,0.0,0.0,0.0,9.121,9.121,9.121,9.121,9.121,9.121,9.121,9.121,9.121,9.121,9.121,9.121,9.121,9.121,9.121,9.121,9.121,9.121,9.121,9.121,9.121,9.121,9.121,9.121,9.121,9.121,9.121,9.121,9.121,9.121,9.121,9.121,9.121,9.121,9.121,9.121,9.121,9.121,9.121,9.121,9.121,9.121,9.121,9.121,9.121,9.121,9.121,9.121,9.121,9.121,9.121,9.121,9.121,9.121,9.121,9.121,9.121,9.121,9.121,9.121,9.121,9.121,9.121,9.121,9.121,9.121,9.121,9.121,9.121,9.121,9.121,9.121,9.1325,5.8362,6.195,0.0,0.0,0.0,0.0,0.0,7.3542,0.0,0.0,0.0,0.0,0.0,0.0,0.0,0.0,0.0,0.0,0.0,0.0,0.0,0.0,0.0,0.0,0.0,0.0,0.0,0.0,0.0,0.0,0.0,0.0,0.0,0.0,0.0,0.0,0.0,0.0,0.0,0.0,9.121,9.121,9.121,9.121,9.121,9.121,9.121,9.121,9.121,9.121,9.121,9.121,9.121,9.121,9.121,9.121,9.121,9.121,9.121,9.121,9.121,9.121,9.121,9.121,9.121,9.121,9.121,9.121,9.121,9.121,9.121,9.121,9.121,9.121,9.121,9.121,9.121,9.121,9.121,9.121,9.121,9.121,9.121,9.121,9.121,9.121,9.121,9.121,9.121,9.121,9.121,9.121,9.121,9.121,9.121,9.121,9.121,9.121,9.121,9.121,9.121,9.121,9.121,9.121,9.121,9.121,9.121,9.121,9.121,9.121,9.121,9.1325,6.1914,6.564,0.0,0.0,0.0,0.0,0.0,0.0,0.0,0.0,0.0,0.0,0.0,0.0,0.0,0.0,0.0,0.0,0.0,0.0,0.0,0.0,0.0,0.0,0.0,0.0,0.0,0.0,0.0,0.0,0.0,0.0,0.0,0.0,0.0,0.0,0.0,0.0,0.0,0.0,9.121,9.121,9.121,9.121,9.121,9.121,9.121,9.121,9.121,9.121,9.121,9.121,9.121,9.121,9.121,9.121,9.121,9.121,9.121,9.121,9.121,9.121,9.121,9.121,9.121,9.121,9.121,9.121,9.121,9.121,9.121,9.121,9.121,9.121,9.121,9.121,9.121,9.121,9.121,9.121,9.121,9.121,9.121,9.121,9.121,9.121,9.121,9.121,9.121,9.121,9.121,9.121,9.121,9.121,9.121,9.121,9.121,9.121,9.121,9.121,9.121,9.121,9.121,9.121,9.121,9.121,9.121,9.121,9.121,9.121,9.121,9.1248,6.8365,0.0,0.0,7.7487,0.0,0.0,0.0,0.0,0.0,0.0,0.0,0.0,0.0,0.0,0.0,0.0,0.0,0.0,0.0,0.0,0.0,0.0,0.0,0.0,0.0,0.0,0.0,0.0,0.0,0.0,0.0,0.0,0.0,0.0,0.0,0.0,0.0,0.0,0.0,0.0,0.0,9.121,9.121,9.121,9.121,9.121,9.121,9.121,9.121,9.121,9.121,9.121,9.121,9.121,9.121,9.121,9.121,9.121,9.121,9.121,9.121,9.121,9.121,9.121,9.121,9.121,9.121,9.121,9.121,9.121,9.121,9.121,9.121,9.121,9.121,9.121,9.121,9.121,9.121,9.121,9.121,9.121,9.121,9.121,9.121,9.121,9.121,9.121,9.121,9.121,9.121,9.121,9.121,9.121,9.121,9.121,9.121,9.121,9.121,9.121,9.121,9.121,9.121,9.121,9.121,9.121,9.121,9.121,9.121,9.121,9.121,9.121,6.3406,6.7648,0.0,0.0,7.7139,0.0,0.0,0.0,0.0,0.0,0.0,0.0,0.0,0.0,0.0,0.0,0.0,0.0,0.0,0.0,0.0,0.0,0.0,0.0,0.0,0.0,0.0,0.0,0.0,0.0,0.0,0.0,0.0,0.0,0.0,0.0,0.0,0.0,0.0,0.0,9.121,9.121,9.121,9.121,9.121,9.121,9.121,9.121,9.121,9.121,9.121,9.121,9.121,9.121,9.121,9.121,9.121,9.121,9.121,9.121,9.121,9.121,9.121,9.121,9.121,9.121,9.121,9.121,9.121,9.121,9.121,9.121,9.121,9.121,9.121,9.121,9.121,9.121,9.121,9.121,9.121,9.121,9.121,9.121,9.121,9.121,9.121,9.121,9.121,9.121,9.121,9.121,9.121,9.121,9.121,9.121,9.121,9.121,9.121,9.121,9.121,9.121,9.121,9.121,9.121,9.121,9.121,9.121,9.121,9.121,9.121,9.121,6.5301,0.0,0.0,7.6394,0.0,8.0315,0.0,0.0,0.0,0.0,0.0,0.0,0.0,0.0,0.0,0.0,0.0,0.0,0.0,0.0,0.0,0.0,0.0,0.0,0.0,0.0,0.0,0.0,0.0,0.0,0.0,0.0,0.0,0.0,0.0,0.0,0.0,9.121,9.121,9.121,9.121,9.121,9.121,9.121,9.121,9.121,9.121,9.121,9.121,9.121,9.121,9.121,9.121,9.121,9.121,9.121,9.121,9.121,9.121,9.121,9.121,9.121,9.121,9.121,9.121,9.121,9.121,9.121,9.121,9.121,9.121,9.121,9.121,9.121,9.121,9.121,9.121,9.121,9.121,9.121,9.121,9.121,9.121,9.121,9.121,9.121,9.121,9.121,9.121,9.121,9.121,9.121,9.121,9.121,9.121,9.121,9.121,9.121,9.121,9.121,9.121,9.121,9.121,9.121,9.121,9.121,9.121,9.121,9.121,9.121,9.121,9.121,6.7346,7.1678,7.5379,7.91,8.0561,0.0,8.0177,0.0,0.0,0.0,0.0,0.0,0.0,0.0,0.0,0.0,0.0,0.0,0.0,0.0,0.0,0.0,0.0,0.0,0.0,0.0,0.0,0.0,0.0,0.0,0.0,0.0,0.0,0.0,0.0,0.0,0.0,9.121,9.121,9.121,9.121,9.121,9.121,9.121,9.121,9.121,9.121,9.121,9.121,9.121,9.121,9.121,9.121,9.121,9.121,9.121,9.121,9.121,9.121,9.121,9.121,9.121,9.121,9.121,9.121,9.121,9.121,9.121,9.121,9.121,9.121,9.121,9.121,9.121,9.121,9.121,9.121,9.121,9.121,9.121,9.121,9.121,9.121,9.121,9.121,9.121,9.121,9.121,9.121,9.121,9.121,9.121,9.121,9.121,9.121,9.121,9.121,9.121,9.121,9.121,9.121,9.121,9.121,9.121,9.121,9.121,9.121,9.121,9.121,9.121,9.121,9.121,6.0358,0.0,7.4835,0.0,8.1016,8.1054,0.0,0.0,0.0,0.0,0.0,0.0,0.0,0.0,0.0,0.0,0.0,0.0,0.0,0.0,0.0,0.0,0.0,0.0,0.0,0.0,0.0,0.0,0.0,0.0,0.0,0.0,0.0,0.0,0.0,0.0,0.0,9.121,9.121,9.121,9.121,9.121,9.121,9.121,9.121,9.121,9.121,9.121,9.121,9.121,9.121,9.121,9.121,9.121,9.121,9.121,9.121,9.121,9.121,9.121,9.121,9.121,9.121,9.121,9.121,9.121,9.121,9.121,9.121,9.121,9.121,9.121,9.121,9.121,9.121,9.121,9.121,9.121,9.121,9.121,9.121,9.121,9.121,9.121,9.121,9.121,9.121,9.121,9.121,9.121,9.121,9.121,9.121,9.121,9.121,9.121,9.121,9.121,9.121,9.121,9.121,9.121,9.121,9.121,9.121,9.121,9.121,9.121,9.121,9.121,9.121,9.121,6.2133,6.9206,7.5787,0.0,8.0746,8.1093,8.1093,0.0,0.0,0.0,0.0,0.0,0.0,0.0,0.0,0.0,0.0,0.0,0.0,0.0,0.0,0.0,0.0,0.0,0.0,0.0,0.0,0.0,0.0,0.0,0.0,0.0,0.0,9.121,0.0,0.0,0.0,9.121,9.121,9.121,9.121,9.121,9.121,9.121,9.121,9.121,9.121,9.121,9.121,9.121,9.121,9.121,9.121,9.121,9.121,9.121,9.121,9.121,9.121,9.121,9.121,9.121,9.121,9.121,9.121,9.121,9.121,9.121,9.121,9.121,9.121,9.121,9.121,9.121,9.121,9.121,9.121,9.121,9.121,9.121,9.121,9.121,9.121,9.121,9.121,9.121,9.121,9.121,9.121,9.121,9.121,9.121,9.121,9.121,9.121,9.121,9.121,9.121,9.121,9.121,9.121,9.121,9.121,9.121,9.121,9.121,9.121,9.121,9.121,9.121,9.121,9.121,0.0,0.0,7.4029,7.7885,7.9492,8.0369,0.0,0.0,0.0,0.0,0.0,0.0,0.0,0.0,0.0,0.0,0.0,0.0,0.0,0.0,0.0,0.0,0.0,0.0,0.0,0.0,0.0,0.0,0.0,0.0,0.0,0.0,9.121,9.121,9.121,9.121,9.121,9.121,9.121,9.121,9.121,9.121,9.121,9.121,9.121,9.121,9.121,9.121,9.121,9.121,9.121,9.121,9.121,9.121,9.121,9.121,9.121,9.121,9.121,9.121,9.121,9.121,9.121,9.121,9.121,9.121,9.121,9.121,9.121,9.121,9.121,9.121,9.121,9.121,9.121,9.121,9.121,9.121,9.121,9.121,9.121,9.121,9.121,9.121,9.121,9.121,9.121,9.121,9.121,9.121,9.121,9.121,9.121,9.121,9.121,9.121,9.121,9.121,9.121,9.121,9.121,9.121,9.121,9.121,9.121,9.121,9.121,9.121,9.121,9.121,9.121,9.1248,0.0,6.377,0.0,7.4374,7.6855,0.0,0.0,0.0,0.0,0.0,0.0,0.0,0.0,0.0,0.0,0.0,0.0,0.0,0.0,0.0,0.0,0.0,0.0,0.0,0.0,0.0,0.0,0.0,0.0,0.0,0.0,9.121,9.121,9.121,9.121,9.121,9.121,9.121,9.121,9.121,9.121,9.121,9.121,9.121,9.121,9.121,9.121,9.121,9.121,9.121,9.121,9.121,9.121,9.121,9.121,9.121,9.121,9.121,9.121,9.121,9.121,9.121,9.121,9.121,9.121,9.121,9.121,9.121,9.121,9.121,9.121,9.121,9.121,9.121,9.121,9.121,9.121,9.121,9.121,9.121,9.121,9.121,9.121,9.121,9.121,9.121,9.121,9.121,9.121,9.121,9.121,9.121,9.121,9.121,9.121,9.121,9.121,9.121,9.121,9.121,9.121,9.121,9.121,9.121,9.121,9.121,9.121,9.121,9.121,9.121,9.121,9.1287,0.0,0.0,0.0,7.0706,7.4226,7.6778,0.0,0.0,0.0,0.0,0.0,0.0,0.0,0.0,0.0,0.0,0.0,0.0,0.0,0.0,0.0,0.0,0.0,0.0,0.0,0.0,0.0,0.0,0.0,0.0,0.0,9.121,9.121,9.121,9.121,9.121,9.121,9.121,9.121,9.121,9.121,9.121,9.121,9.121,9.121,9.121,9.121,9.121,9.121,9.121,9.121,9.121,9.121,9.121,9.121,9.121,9.121,9.121,9.121,9.121,9.121,9.121,9.121,9.121,9.121,9.121,9.121,9.121,9.121,9.121,9.121,9.121,9.121,9.121,9.121,9.121,9.121,9.121,9.121,9.121,9.121,9.121,9.121,9.121,9.121,9.121,9.121,9.121,9.121,9.121,9.121,9.121,9.121,9.121,9.121,9.121,9.121,9.121,9.121,9.121,9.121,9.121,9.121,9.121,9.121,9.121,9.121,9.121,9.121,9.121,9.121,9.1325,5.6498,0.0,0.0,0.0,0.0,7.3774,7.6625,0.0,0.0,0.0,0.0,0.0,0.0,0.0,0.0,0.0,0.0,0.0,0.0,0.0,0.0,0.0,0.0,0.0,0.0,0.0,0.0,0.0,0.0,0.0,9.121,9.121,9.121,9.121,9.121,9.121,9.121,9.121,9.121,9.121,9.121,9.121,9.121,9.121,9.121,9.121,9.121,9.121,9.121,9.121,9.121,9.121,9.121,9.121,9.121,9.121,9.121,9.121,9.121,9.121,9.121,9.121,9.121,9.121,9.121,9.121,9.121,9.121,9.121,9.121,9.121,9.121,9.121,9.121,9.121,9.121,9.121,9.121,9.121,9.121,9.121,9.121,9.121,9.121,9.121,9.121,9.121,9.121,9.121,9.121,9.121,9.121,9.121,9.121,9.121,9.121,9.121,9.121,9.121,9.121,9.121,9.121,9.121,9.121,9.121,9.121,9.121,9.121,9.121,9.121,9.121,9.1325,0.0,0.0,0.0,0.0,0.0,0.0,0.0,0.0,0.0,0.0,0.0,0.0,0.0,0.0,0.0,0.0,0.0,0.0,0.0,0.0,0.0,0.0,0.0,0.0,0.0,0.0,0.0,0.0,0.0,0.0,9.121,9.121,9.121,9.121,9.121,9.121,9.121,9.121,9.121,9.121,9.121,9.121,9.121,9.121,9.121,9.121,9.121,9.121,9.121,9.121,9.121,9.121,9.121,9.121,9.121,9.121,9.121,9.121,9.121,9.121,9.121,9.121,9.121,9.121,9.121,9.121,9.121,9.121,9.121,9.121,9.121,9.121,9.121,9.121,9.121,9.121,9.121,9.121,9.121,9.121,9.121,9.121,9.121,9.121,9.121,9.121,9.121,9.121,9.121,9.121,9.121,9.121,9.121,9.121,9.121,9.121,9.121,9.121,9.121,9.121,9.121,9.121,9.121,9.121,9.121,9.121,9.121,9.121,9.121,9.121,9.121,9.1325,5.3469,0.0,0.0,0.0,0.0,0.0,0.0,0.0,0.0,0.0,0.0,0.0,0.0,0.0,0.0,0.0,0.0,0.0,0.0,0.0,0.0,0.0,0.0,0.0,0.0,0.0,0.0,0.0,0.0,9.121,9.121,9.121,9.121,9.121,9.121,9.121,9.121,9.121,9.121,9.121,9.121,9.121,9.121,9.121,9.121,9.121,9.121,9.121,9.121,9.121,9.121,9.121,9.121,9.121,9.121,9.121,9.121,9.121,9.121,9.121,9.121,9.121,9.121,9.121,9.121,9.121,9.121,9.121,9.121,9.121,9.121,9.121,9.121,9.121,9.121,9.121,9.121,9.121,9.121,9.121,9.121,9.121,9.121,9.121,9.121,9.121,9.121,9.121,9.121,9.121,9.121,9.121,9.121,9.121,9.121,9.121,9.121,9.121,9.121,9.121,9.121,9.121,9.121,9.121,9.121,9.121,9.121,9.121,9.121,9.121,9.1556,9.1763,0.0,0.0,0.0,0.0,0.0,0.0,0.0,0.0,0.0,0.0,0.0,0.0,0.0,0.0,0.0,0.0,0.0,0.0,0.0,0.0,0.0,0.0,0.0,0.0,0.0,0.0,0.0,0.0,9.121,9.121,9.121,9.121,9.121,9.121,9.121,9.121,9.121,9.121,9.121,9.121,9.121,9.121,9.121,9.121,9.121,9.121,9.121,9.121,9.121,9.121,9.121,9.121,9.121,9.121,9.121,9.121,9.121,9.121,9.121,9.121,9.121,9.121,9.121,9.121,9.121,9.121,9.121,9.121,9.121,9.121,9.121,9.121,9.121,9.121,9.121,9.121,9.121,9.121,9.121,9.121,9.121,9.121,9.121,9.121,9.121,9.121,9.121,9.121,9.121,9.121,9.121,9.121,9.121,9.121,9.121,9.121,9.121,9.121,9.121,9.121,9.121,9.121,9.121,9.121,9.121,9.121,9.121,9.121,9.121,9.121,9.1672,9.1919,0.0,0.0,0.0,0.0,0.0,0.0,0.0,0.0,0.0,0.0,0.0,0.0,0.0,0.0,0.0,0.0,0.0,0.0,0.0,0.0,0.0,0.0,0.0,0.0,0.0,0.0,0.0,0.0,9.121,9.121,9.121,9.121,9.121,9.121,9.121,9.121,9.121,9.121,9.121,9.121,9.121,9.121,9.121,9.121,9.121,9.121,9.121,9.121,9.121,9.121,9.121,9.121,9.121,9.121,9.121,9.121,9.121,9.121,9.121,9.121,9.121,9.121,9.121,9.121,9.121,9.121,9.121,9.121,9.121,9.121,9.121,9.121,9.121,9.121,9.121,9.121,9.121,9.121,9.121,9.121,9.121,9.121,9.121,9.121,9.121,9.121,9.121,9.121,9.121,9.121,9.121,9.121,9.121,9.121,9.121,9.121,9.121,9.121,9.121,9.121,9.121,9.121,9.121,9.121,9.121,9.121,9.121,9.121,9.121,9.121,9.1672,9.1919,0.0,0.0,0.0,0.0,0.0,0.0,0.0,0.0,0.0,0.0,0.0,0.0,0.0,0.0,0.0,0.0,0.0,0.0,0.0,0.0,0.0,0.0,0.0,0.0,0.0,0.0,0.0,9.121,9.121,9.121,9.121,9.121,9.121,9.121,9.121,9.121,9.121,9.121,9.121,9.121,9.121,9.121,9.121,9.121,9.121,9.121,9.121,9.121,9.121,9.121,9.121,9.121,9.121,9.121,9.121,9.121,9.121,9.121,9.121,9.121,9.121,9.121,9.121,9.121,9.121,9.121,9.121,9.121,9.121,9.121,9.121,9.121,9.121,9.121,9.121,9.121,9.121,9.121,9.121,9.121,9.121,9.121,9.121,9.121,9.121,9.121,9.121,9.121,9.121,9.121,9.121,9.121,9.121,9.121,9.121,9.121,9.121,9.121,9.121,9.121,9.121,9.121,9.121,9.121,9.121,9.121,9.121,9.121,9.121,9.121,9.1672,9.1919,0.0,0.0,0.0,5.9648,0.0,0.0,0.0,0.0,0.0,0.0,0.0,0.0,0.0,0.0,0.0,0.0,0.0,0.0,0.0,0.0,0.0,0.0,0.0,0.0,0.0,0.0,0.0,9.1171,9.121,9.121,9.121,9.121,9.121,9.121,9.121,9.121,9.121,9.121,9.121,9.121,9.121,9.121,9.121,9.121,9.121,9.121,9.121,9.121,9.121,9.121,9.121,9.121,9.121,9.121,9.121,9.121,9.121,9.121,9.121,9.121,9.121,9.121,9.121,9.121,9.121,9.121,9.121,9.121,9.121,9.121,9.121,9.121,9.121,9.121,9.121,9.121,9.121,9.121,9.121,9.121,9.121,9.121,9.121,9.121,9.121,9.121,9.121,9.121,9.121,9.121,9.121,9.121,9.121,9.121,9.121,9.121,9.121,9.121,9.121,9.121,9.121,9.121,9.121,9.121,9.121,9.121,9.121,9.121,9.121,9.121,9.1672,9.1919,0.0,0.0,0.0,0.0,0.0,6.1412,0.0,0.0,0.0,0.0,0.0,0.0,0.0,0.0,0.0,0.0,0.0,0.0,0.0,0.0,0.0,0.0,0.0,0.0,0.0,0.0,0.0,9.1095,9.0559,9.0482,9.1171,9.121,9.121,9.121,9.121,9.121,9.121,9.121,9.121,9.121,9.121,9.121,9.121,9.121,9.121,9.121,9.121,9.121,9.121,9.121,9.121,9.121,9.121,9.121,9.121,9.121,9.121,9.121,9.121,9.121,9.121,9.121,9.121,9.121,9.121,9.121,9.121,9.121,9.121,9.121,9.121,9.121,9.121,9.121,9.121,9.121,9.121,9.121,9.121,9.121,9.121,9.121,9.121,9.121,9.121,9.121,9.121,9.121,9.121,9.121,9.121,9.121,9.121,9.121,9.121,9.121,9.121,9.121,9.121,9.121,9.121,9.121,9.121,9.121,9.121,9.121,9.121,9.121,9.121,9.121,9.1672,9.1919,0.0,0.0,0.0,0.0,6.3053,0.0,0.0,0.0,0.0,0.0,0.0,0.0,0.0,0.0,0.0,0.0,0.0,0.0,0.0,0.0,0.0,0.0,0.0,0.0,0.0,0.0,0.0,0.0,8.8375,8.799,9.1056,9.121,9.121,9.121,9.121,9.121,9.121,9.121,9.121,9.121,9.121,9.121,9.121,9.121,9.121,9.121,9.121,9.121,9.121,9.121,9.121,9.121,9.121,9.121,9.121,9.121,9.121,9.121,9.121,9.121,9.121,9.121,9.121,9.121,9.121,9.121,9.121,9.121,9.121,9.121,9.121,9.121,9.121,9.121,9.121,9.121,9.121,9.121,9.121,9.121,9.121,9.121,9.121,9.121,9.121,9.121,9.121,9.121,9.121,9.121,9.121,9.121,9.121,9.121,9.121,9.121,9.121,9.121,9.121,9.121,9.121,9.121,9.121,9.121,9.121,9.121,9.121,9.121,9.121,9.121,9.1672,9.1919,0.0,0.0,0.0,0.0,0.0,0.0,0.0,0.0,6.0204,0.0,0.0,0.0,0.0,0.0,0.0,0.0,0.0,0.0,0.0,0.0,0.0,0.0,0.0,0.0,0.0,0.0,0.0,0.0,0.0,8.6688,8.9563,9.0636,9.121,9.121,9.121,9.121,9.121,9.121,9.121,9.121,9.121,9.121,9.121,9.121,9.121,9.121,9.121,9.121,9.121,9.121,9.121,9.121,9.121,9.121,9.121,9.121,9.121,9.121,9.121,9.121,9.121,9.121,9.121,9.121,9.121,9.121,9.121,9.121,9.121,9.121,9.121,9.121,9.121,9.121,9.121,9.121,9.121,9.121,9.121,9.121,9.121,9.121,9.121,9.121,9.121,9.121,9.121,9.121,9.121,9.121,9.121,9.121,9.121,9.121,9.121,9.121,9.121,9.121,9.121,9.121,9.121,9.121,9.121,9.121,9.121,9.121,9.121,9.121,9.121,9.121,9.1672,9.1919,6.836,0.0,0.0,0.0,0.0,0.0,0.0,0.0,0.0,0.0,0.0,0.0,0.0,0.0,0.0,0.0,0.0,0.0,0.0,0.0,0.0,0.0,0.0,0.0,0.0,0.0,0.0,0.0,0.0,0.0,8.8833,9.0175,9.0979,9.121,9.121,9.121,9.121,9.121,9.121,9.121,9.121,9.121,9.121,9.121,9.121,9.121,9.121,9.121,9.121,9.121,9.121,9.121,9.121,9.121,9.121,9.121,9.121,9.121,9.121,9.121,9.121,9.121,9.121,9.121,9.121,9.121,9.121,9.121,9.121,9.121,9.121,9.121,9.121,9.121,9.121,9.121,9.121,9.121,9.121,9.121,9.121,9.121,9.121,9.121,9.121,9.121,9.121,9.121,9.121,9.121,9.121,9.121,9.121,9.121,9.121,9.121,9.121,9.121,9.121,9.121,9.121,9.121,9.121,9.121,9.121,9.121,9.121,9.121,9.1248,9.1287,9.171,9.1919,0.0,0.0,0.0,0.0,0.0,0.0,0.0,0.0,6.2021,0.0,0.0,0.0,0.0,0.0,0.0,0.0,0.0,0.0,0.0,0.0,0.0,0.0,0.0,0.0,0.0,0.0,0.0,0.0,0.0,0.0,0.0,8.9906,9.0329,9.1171,9.121,9.121,9.121,9.121,9.121,9.121,9.121,9.121,9.121,9.121,9.121,9.121,9.121,9.121,9.121,9.121,9.121,9.121,9.121,9.121,9.121,9.121,9.121,9.121,9.121,9.121,9.121,9.121,9.121,9.121,9.121,9.121,9.121,9.121,9.121,9.121,9.121,9.121,9.121,9.121,9.121,9.121,9.121,9.121,9.121,9.121,9.121,9.121,9.121,9.121,9.121,9.121,9.121,9.121,9.121,9.121,9.121,9.121,9.121,9.121,9.121,9.121,9.121,9.121,9.121,9.121,9.121,9.121,9.121,9.121,9.121,9.121,9.121,9.121,9.1287,9.1479,9.1748,9.1919,0.0,0.0,7.68,7.1409,0.0,0.0,0.0,0.0,0.0,0.0,0.0,0.0,0.0,0.0,0.0,0.0,0.0,0.0,0.0,0.0,0.0,0.0,0.0,0.0,0.0,0.0,0.0,0.0,0.0,0.0,0.0,8.879,8.9752,9.1171,9.121,9.121,9.121,9.121,9.121,9.121,9.121,9.121,9.121,9.121,9.121,9.121,9.121,9.121,9.121,9.121,9.121,9.121,9.121,9.121,9.121,9.121,9.121,9.121,9.121,9.121,9.121,9.121,9.121,9.121,9.121,9.121,9.121,9.121,9.121,9.121,9.121,9.121,9.121,9.121,9.121,9.121,9.121,9.121,9.121,9.121,9.121,9.121,9.121,9.121,9.121,9.121,9.121,9.121,9.121,9.121,9.121,9.121,9.121,9.121,9.121,9.121,9.121,9.121,9.121,9.121,9.121,9.121,9.121,9.121,9.121,9.121,9.121,9.121,9.1287,9.1514,9.1771,9.1954,7.9177,8.0061,0.0,0.0,7.3971,0.0,0.0,0.0,0.0,0.0,0.0,0.0,0.0,0.0,0.0,0.0,0.0,0.0,0.0,5.9391,0.0,0.0,0.0,0.0,0.0,0.0,0.0,0.0,0.0,0.0,0.0,0.0,8.9448,9.1171,9.121,9.121,9.121,9.121,9.121,9.121,9.121,9.121,9.121,9.121,9.121,9.121,9.121,9.121,9.121,9.121,9.121,9.121,9.121,9.121,9.121,9.121,9.121,9.121,9.121,9.121,9.121,9.121,9.121,9.121,9.121,9.121,9.121,9.121,9.121,9.121,9.121,9.121,9.121,9.121,9.121,9.121,9.121,9.121,9.121,9.121,9.121,9.121,9.121,9.121,9.121,9.121,9.121,9.121,9.121,9.121,9.121,9.121,9.121,9.121,9.121,9.121,9.121,9.121,9.121,9.121,9.121,9.121,9.121,9.121,9.121,9.121,9.121,9.121,9.1287,9.1514,9.1789,9.2014]},{"header":{"parameterUnit":"m.s-1","parameterCategory":1,"la1":30.6,"la2":29.2853,"lo1":-89.7004,"lo2":-87.6739,"dx":0.0162,"dy":0.0183,"nx":112,"ny":82,"refTime":"2022-12-25T06:00:00:Z","depth":0,"parameterNumber":3,"parameterNumberName":"V-component_of_WINDS"},"data":[0.0,0.0,0.0,0.0,0.0,0.0,0.0,0.0,0.0,0.0,0.0,0.0,0.0,0.0,0.0,0.0,0.0,0.0,0.0,0.0,0.0,0.0,0.0,0.0,0.0,0.0,0.0,0.0,0.0,0.0,0.0,0.0,0.0,0.0,0.0,0.0,0.0,0.0,0.0,0.0,0.0,0.0,0.0,0.0,0.0,0.0,0.0,0.0,0.0,0.0,0.0,0.0,0.0,0.0,0.0,0.0,0.0,0.0,0.0,0.0,0.0,0.0,0.0,0.0,0.0,0.0,0.0,0.0,0.0,0.0,0.0,0.0,0.0,0.0,0.0,0.0,0.0,0.0,0.0,0.0,0.0,0.0,0.0,0.0,0.0,0.0,0.0,0.0,0.0,0.0,0.0,-0.4564,-0.1888,0.0,0.0,0.0,0.0,0.0,0.0,0.0,0.0,0.0,0.0,0.0,0.0,0.0,0.0,0.0,0.0,0.0,0.0,0.0,0.0,0.0,0.0,0.0,0.0,0.0,0.0,0.0,0.0,0.0,0.0,0.0,0.0,0.0,0.0,0.0,0.0,0.0,0.0,0.0,0.0,0.0,0.0,0.0,0.0,0.0,0.0,0.0,0.0,0.0,0.0,0.0,0.0,0.0,0.0,0.0,0.0,0.0,0.0,0.0,0.0,0.0,0.0,0.0,0.0,0.0,0.0,0.0,0.0,0.0,0.0,0.0,0.0,0.0,0.0,0.0,0.0,0.0,0.0,0.0,0.0,0.0,0.0,0.0,0.0,0.0,0.0,0.0,0.0,0.0,0.0,0.0,0.0,0.0,0.0,0.0,0.0,0.0,0.0,0.0,0.0,0.0,0.0,0.0,0.0,0.0,0.0,0.0,0.0,0.0,-0.087,-0.0805,-0.0287,0.0,0.0,0.0,0.0,0.0,0.0,0.0,0.0,0.0,0.0,0.0,0.0,0.0,0.0,0.0,0.0,0.0,0.0,0.0,0.0,0.0,0.0,0.0,0.0,0.0,0.0,0.0,0.0,0.0,0.0,0.0,0.0,0.0,0.0,0.0,0.0,0.0,0.0,0.0,0.0,0.0,0.0,0.0,0.0,0.0,0.0,0.0,0.0,0.0,0.0,0.0,0.0,0.0,0.0,0.0,0.0,0.0,0.0,0.0,0.0,0.0,0.0,0.0,0.0,0.0,0.0,0.0,0.0,0.0,0.0,0.0,0.0,0.0,0.0,0.0,0.0,0.0,0.0,0.0,0.0,0.0,0.0,0.0,0.0,0.0,0.0,0.0,0.0,0.0,0.0,0.0,0.0,0.0,0.0,0.0,0.0,0.0,0.0,0.0,0.0,0.0,0.0,0.0,0.0,0.0,0.0,0.0,0.0,0.0,0.0,0.0,0.0,0.0,0.0,0.0,0.0,0.0,0.0,0.0,0.0,0.0,0.0,0.0,0.0,0.0,0.0,0.0,0.0,0.0,0.0,0.0,0.0,0.0,0.0,0.0,0.0,0.0,0.0,0.0,0.0,0.0,0.0,0.0,0.0,0.0,0.0,0.0,0.0,0.0,0.0,0.0,0.0,0.0,0.0,0.0,0.0,0.0,0.0,0.0,0.0,0.0,0.0,0.0,0.0,0.0,0.0,0.0,0.0,0.0,0.0,0.0,0.0,0.0,0.0,0.0,0.0,0.0,0.0,0.0,0.0,0.0,0.0,0.0,0.0,0.0,0.0,0.0,0.0,0.0,0.0,0.0,0.0,0.0,0.0,0.0,0.0,0.0,0.0,0.0,0.0,0.0,0.0,0.0,0.0,0.0,0.0,0.0,0.0,0.0,0.0,0.0,0.0,0.0,0.0,0.0,0.0,0.0,0.0,0.0,0.0,0.0,0.0,0.0,0.0,0.0,0.0,0.0,0.0,0.0,0.0,0.0,0.0,0.0,0.0,0.0,0.0,0.0,0.0,0.0,0.0,0.0,0.0,0.0,0.0,0.0,0.0,0.0,0.0,0.0,0.0,0.0,0.0,0.0,0.0,0.0,0.0,0.0,0.0,0.0,0.0,0.0,0.0,0.0,0.0,0.0,0.0,0.0,0.0,0.0,0.0,0.0,0.0,0.0,0.0,0.0,0.0,0.0,0.0,0.0,0.0,0.0,0.0,0.0,0.0,0.0,0.0,0.0,0.0,0.0,0.0,0.0,0.0,0.0,0.0,0.0,0.0,0.0,0.0,0.0,0.0,0.0,0.0,0.0,0.0,0.0,0.0,0.0,0.0,0.0,0.0,0.0,0.0,0.0,0.0,0.0,0.0,0.0,0.0,0.0,0.0,0.0,0.0,0.0,0.0,0.0,0.0,0.0,0.0,0.0,0.0,0.0,0.0,0.0,0.0,0.0,0.0,0.0,0.0,0.0,0.0,0.0,0.0,0.0,0.0,0.0,0.0,0.0,0.0,0.0,0.0,0.0,0.0,0.0,0.0,0.0,0.0,0.0,0.0,0.0,0.0,0.0,0.0,0.0,0.0,0.0,0.0,0.0,0.0,0.0,0.0,0.0,0.0,0.0,0.0,0.0,0.0,0.0,0.0,0.0,0.0,0.0,0.0,0.0,0.0,0.0,0.0,0.0,0.0,0.0,0.0,0.0,0.0,0.0,0.0,0.0,0.0,0.0,0.0,0.0,0.0,0.0,0.0,0.0,0.0,0.0,0.0,0.0,0.0,0.0,0.0,0.0,0.0,0.0,0.0,0.0,0.0,0.0,0.0,0.0,0.0,0.0,0.0,0.0,0.0,0.0,0.0,0.0,0.0,0.0,0.0,0.0,0.0,0.0,0.0,0.0,0.0,0.0,0.0,0.0,0.0,0.0,0.0,0.0,0.0,0.0,0.0,0.0,0.0,0.0,0.0,0.0,0.0,0.0,0.0,0.0,0.0,0.0,0.0,0.0,0.0,0.0,0.0,0.0,0.0,0.0,0.0,0.0,0.0,0.0,0.0,0.0,0.0,0.0,0.0,0.0,0.0,0.0,0.0,0.0,0.0,0.0,0.0,0.0,0.0,0.0,0.0,0.0,0.0,0.0,0.0,0.0,0.0,0.0,0.0,0.0,0.0,0.0,0.0,0.0,0.0,0.0,0.0,0.0,0.0,0.0,0.0,0.0,0.0,0.0,0.0,0.0,0.0,0.0,0.0,0.0,0.0,0.0,0.0,0.0,0.0,0.0,0.0,0.0,0.0,0.0,0.0,0.0,0.0,0.0,0.0,0.0,0.0,0.0,0.0,0.0,0.0,0.0,0.0,0.0,0.0,0.0,0.0,0.0,0.0,0.0,0.0,0.0,0.0,0.0,0.0,0.0,0.0,0.0,0.0,0.0,0.0,0.0,0.0,0.0,0.0,0.0,0.0,0.0,0.0,0.0,0.0,0.0,0.0,0.0,0.0,0.0,0.0,0.0,0.0,0.0,0.0,0.0,0.0,0.0,0.0,0.0,0.0,0.0,0.0,0.0,0.0,0.0,0.0,0.0,0.0,0.0,0.0,0.0,0.0,0.0,0.0,0.0,0.0,0.0,0.0,0.0,0.0,0.0,0.0,0.0,0.0,0.0,0.0,0.0,0.0,0.0,0.0,0.0,0.0,0.0,0.0,0.0,0.0,0.0,0.0,0.0,0.0,0.0,0.0,0.0,0.0,0.0,0.0,0.0,0.0,0.0,0.0,0.0,0.0,0.0,0.0,0.0,0.0,0.0,0.0,0.0,0.0,0.0,0.0,0.0,0.0,0.0,0.0,0.0,0.0,0.0,0.0,0.0,0.0,0.0,0.0,0.0,0.0,0.0,0.0,0.0,0.0,0.0,0.0,0.0,0.0,0.0,0.0,0.0,0.0,0.0,0.0,0.0,0.0,0.0,0.0,0.0,0.0,0.0,0.0,0.0,0.0,0.0,0.0,0.0,0.0,0.0,0.0,0.0,0.0,0.0,0.0,0.0,0.0,0.0,0.0,0.0,0.0,0.0,0.0,0.0,0.0,0.0,0.0,0.0,0.0,0.0,0.0,0.0,0.0,0.0,0.0,0.0,0.0,0.0,0.0,0.0,0.0,0.0,0.0,0.0,0.0,0.0,0.0,0.0,0.0,0.0,0.0,0.0,0.0,0.0,0.0,0.0,0.0,0.0,0.0,0.0,0.0,0.0,0.0,0.0,0.0,0.0,0.0,0.0,0.0,0.0,0.0,0.0,0.0,0.0,0.0,0.0,0.0,0.0,0.0,0.0,0.0,0.0,0.0,0.0,0.0,0.0,0.0,0.0,0.0,0.0,0.0,0.0,0.0,0.0,0.0,0.0,0.0,0.0,0.0,0.0,0.0,0.0,0.0,0.0,0.0,0.0,0.0,0.0,0.0,0.0,0.1474,0.4849,0.0,0.0,0.0,0.0,0.0,0.0,0.0,0.0,0.0,0.0,0.0,0.0,0.0,0.0,0.0,0.0,0.0,0.0,0.0,0.0,0.0,0.0,0.0,0.0,0.0,0.0,0.0,0.0,0.0,0.0,0.0,0.0,0.0,0.0,0.0,0.0,0.0,0.0,0.0,0.0,0.0,0.0,0.0,0.0,0.0,0.0,0.0,0.0,0.0,0.0,0.0,0.0,0.0,0.0,0.0,0.0,0.0,0.0,0.0,0.0,0.0,0.0,0.0,0.0,0.0,0.0,0.0,0.0,0.0,0.0,0.0,0.0,0.0,0.0,0.0,0.0,0.0,0.0,0.0,0.0,0.0,0.0,0.0,0.0,0.0,0.0,0.0,0.0,0.0,0.0,0.0,0.0,0.0,0.0,0.0,0.0,0.0,0.0,0.0,0.0,0.0,0.0,0.0,0.0,0.0,0.0,0.0,0.0,0.0,0.0,0.2403,0.8132,0.0,0.0,0.0,0.0,0.0,0.0,0.0,0.0,0.0,0.0,0.0,0.0,0.0,0.0,0.0,0.0,0.0,0.0,0.0,0.0,0.0,0.0,0.0,0.0,0.0,0.0,0.0,0.0,0.0,0.0,0.0,0.0,0.0,0.0,0.0,0.0,0.0,0.0,0.0,0.0,0.0,0.0,0.0,0.0,0.0,0.0,0.0,0.0,0.0,0.0,0.0,0.0,0.0,0.0,0.0,0.0,0.0,0.0,0.0,0.0,0.0,0.0,0.0,0.0,0.0,0.0,0.0,0.0,0.0,0.0,0.0,0.0,0.0,0.0,0.0,0.0,0.0,0.0,0.0,0.0,0.0,0.0,0.0,0.0,0.0,0.0,0.0,0.0,0.0,0.0,0.0,0.0,0.0,0.0,0.0,0.0,0.0,0.0,0.0,0.0,0.0,0.0,0.0,0.0,0.0,0.0,0.0,0.0,0.0,0.0,0.3077,1.037,0.0,0.0,0.0,0.0,0.0,0.0,0.0,0.0,0.0,0.0,0.0,0.0,0.0,0.0,0.0,0.0,0.0,0.0,0.0,0.0,0.0,0.0,0.0,0.0,0.0,0.0,0.0,0.0,0.0,0.0,0.0,0.0,0.0,0.0,0.0,0.0,0.0,0.0,0.0,0.0,0.0,0.0,0.0,0.0,0.0,0.0,0.0,0.0,0.0,0.0,0.0,0.0,0.0,0.0,0.0,0.0,0.0,0.0,0.0,0.0,0.6584,0.0,0.0,0.0,0.0,0.0,0.0,0.0,0.0,0.0,0.0,0.0,0.0,0.0,0.0,0.0,0.0,0.0,0.0,0.0,0.0,0.0,0.0,0.0,0.0,0.0,0.0,0.0,0.0,0.0,0.0,0.0,0.0,0.0,0.0,0.0,0.0,0.0,0.0,0.0,0.0,0.0,0.0,0.0,0.0,0.0,0.0,0.0,0.0,0.0,0.354,1.1619,0.0,0.0,0.0,0.0,0.0,0.0,0.0,0.0,0.0,0.0,0.0,0.0,0.0,0.0,0.0,0.0,0.0,0.0,0.0,0.0,0.0,0.0,0.0,0.0,0.0,0.0,0.0,0.0,0.0,0.0,0.0,0.0,0.0,0.0,0.0,0.0,0.0,0.0,0.0,0.0,0.0,0.0,0.0,0.0,0.0,0.0,0.0,0.0,0.0,0.0,0.0,0.0,0.0,0.0,0.0,0.0,0.0,0.0,0.0,0.0,0.0,0.8527,0.0,0.0,0.0,0.0,0.0,0.0,0.0,0.0,0.0,0.0,0.0,0.0,0.0,0.0,0.0,0.0,0.0,0.0,0.0,0.0,0.0,0.0,0.0,0.0,0.0,0.0,0.0,0.0,0.0,0.0,0.0,0.0,0.0,0.0,0.0,0.0,0.0,0.0,0.0,0.0,0.0,0.0,0.0,0.0,0.0,0.0,0.0,0.3917,0.8181,1.2175,1.1617,0.0,0.0,0.0,0.0,0.0,0.0,0.0,0.0,0.0,0.0,0.0,0.0,0.0,0.0,0.0,0.0,0.0,0.0,0.0,0.0,0.0,0.0,0.0,0.0,0.0,0.0,0.0,0.0,0.0,0.0,0.0,0.0,0.0,0.0,0.0,0.0,0.0,0.0,0.0,0.0,0.0,0.0,0.0,0.0,0.0,0.0,0.0,0.0,0.0,0.0,0.0,0.0,0.0,0.0,0.0,0.0,0.9813,0.9802,0.9788,0.9355,0.9345,0.9544,0.0,0.0,0.0,0.0,0.0,0.0,0.0,0.0,0.0,0.0,0.0,0.0,0.0,0.0,0.0,0.0,0.0,0.0,0.0,0.0,0.0,0.0,0.0,0.0,0.0,0.0,0.0,0.0,0.0,0.0,0.0,0.0,0.0,0.0,0.0,0.0,0.0,0.0,0.0,0.0,0.0,0.0,0.0,0.0,0.0,0.0,0.8233,1.3082,1.2603,1.2023,1.1403,0.0,0.0,0.0,0.0,0.0,0.0,0.0,0.0,0.0,0.0,0.0,0.0,0.0,0.0,0.0,0.0,0.0,0.0,0.0,0.0,0.0,0.0,0.0,0.0,0.0,0.0,0.0,0.0,0.0,0.0,0.0,0.0,0.0,0.7522,0.0,0.0,0.0,0.0,0.0,0.0,0.0,0.0,0.0,0.0,0.0,0.0,0.0,0.0,0.9147,0.9637,0.9802,0.9745,0.9849,0.9784,0.9817,0.9797,0.9817,0.9857,1.0271,0.0,0.903,0.9449,0.0,0.0,0.0,0.0,0.0,0.0,0.0,0.0,0.0,0.0,0.0,0.0,0.0,0.0,0.0,0.0,0.0,0.0,0.0,0.0,0.0,0.0,0.0,0.0,0.0,0.0,0.0,0.0,0.0,0.0,0.0,0.0,0.0,0.0,0.0,0.0,0.0,0.0,0.0,0.0,0.0,0.0,0.0,0.0,0.0,0.8263,1.3116,1.2561,1.2477,1.1924,1.0802,1.0287,0.0,0.0,0.0,0.0,0.0,0.0,0.0,0.0,0.0,0.0,0.0,0.0,0.0,0.0,0.0,0.0,0.0,0.0,0.0,0.0,0.0,0.0,0.0,0.0,0.0,0.0,0.0,0.0,0.0,0.2018,0.4647,0.7878,0.8405,0.7491,0.0,0.0,0.0,0.0,0.0,0.0,0.0,0.0,0.0,0.5541,0.8257,0.9858,0.9856,0.9808,0.9854,0.9751,0.9787,0.9916,1.0273,1.0267,1.0306,1.0379,1.0582,1.0439,0.9949,0.0,0.9117,0.8121,0.0,0.0,0.0,0.0,0.0,0.0,0.0,0.0,0.0,0.0,0.0,0.0,0.0,0.0,0.0,0.0,0.0,0.0,0.0,0.0,0.0,0.0,0.0,0.0,0.0,0.0,0.0,0.0,0.0,0.0,0.0,0.0,0.0,0.0,0.0,0.0,0.0,0.0,0.0,0.0,0.0,0.0,0.0,0.8229,1.3109,1.2581,1.2471,1.215,1.1221,1.0829,0.0,0.0,0.0,0.0,0.0,0.0,0.0,0.0,0.0,0.0,0.0,0.0,0.0,0.0,0.0,0.0,0.0,0.0,0.0,0.0,0.0,0.0,0.0,0.0,0.0,0.0,0.0,0.0,0.0,0.0,0.0,0.577,0.7884,0.8564,0.0,0.0,0.0,0.0,0.0,0.0,0.0,0.9297,0.98,0.9744,0.9919,1.0026,1.0062,1.0012,0.9974,1.0077,1.0241,1.0459,1.098,1.0974,1.0894,1.0866,1.0866,1.0866,1.0934,1.0287,0.9765,0.9308,0.9196,0.0,0.0,0.0,0.5246,0.9391,0.9863,1.0026,0.0,1.0054,0.0,0.0,0.9692,0.0,0.0,0.0,0.0,0.0,0.0,0.0,0.0,0.0,0.0,0.0568,0.2558,0.1393,0.0537,0.0,0.258,0.2139,0.0,0.0,0.0,0.0,0.0,0.0,0.0,0.0,0.0,0.0,0.0,0.0849,0.3194,0.9375,1.2949,1.2476,1.2525,1.2338,1.1843,1.126,1.0878,0.0,0.0,0.0,0.0,0.0,0.0,0.0,0.0,0.0,0.0,0.0,0.0,0.0,0.0,0.0,0.0,0.0,0.0,0.0,0.0,0.0,0.0,0.0,0.0,0.0,0.0,0.0,0.0,0.0,0.0,0.0441,0.5406,0.0,0.0,0.0,0.0,0.0,0.953,0.9702,0.9655,0.9806,0.9781,0.9836,1.0365,1.0589,1.0616,1.0632,1.065,1.0684,1.1214,1.1572,1.1614,1.1579,1.1572,1.1579,1.1579,1.1579,1.1537,1.0906,1.0621,1.0566,0.994,0.9312,0.8816,0.8561,0.9387,1.0557,1.0587,1.0697,1.0622,1.0707,1.0221,0.9722,0.9774,0.9624,0.0,0.0,0.0,0.0,0.0,0.0,0.0,0.0,0.0,0.206,0.9476,0.5241,0.1843,0.0,0.9716,0.0,0.0,0.0,0.0,0.0,0.0,0.0,0.0,0.0,0.0,0.0,0.0,0.3409,1.1986,1.2611,1.2501,1.2455,1.2528,1.2456,1.245,1.1818,1.1511,1.1538,1.0904,0.0,0.0,0.0,0.0,0.0,0.0,0.0,0.0,0.0,0.0,0.0,0.0,0.0,0.0,0.0,0.0,0.0,0.0,0.0,0.0,0.0,0.0,0.0,0.0,0.0,0.0,0.0,0.0,0.5764,0.7879,0.0,0.0,0.8984,0.9319,0.9767,0.9744,0.9917,1.0419,1.0355,1.0392,1.0426,1.0618,1.0833,1.134,1.1269,1.1287,1.1255,1.1525,1.1653,1.161,1.1596,1.159,1.159,1.159,1.159,1.1569,1.1315,1.1097,1.0683,1.05,1.0222,1.0055,1.0096,1.0351,1.0795,1.1178,1.1333,1.1254,1.0778,1.024,0.9849,0.9803,1.0042,0.8886,0.1975,0.0,0.0,0.0,0.0,0.1329,0.67,0.8067,0.8835,1.1599,0.9962,0.8775,1.1136,0.7416,0.2945,0.041,0.0,0.0,0.0,0.0,0.0,0.0,0.0,0.0,0.0,0.0,0.3562,1.2701,1.3281,1.2862,1.2503,1.2501,1.244,1.2449,1.1979,1.159,1.1543,1.141,1.1106,0.0,0.0,0.0,0.0,0.0,0.0,0.0,0.0,0.0,0.0,0.0,0.0,0.0,0.0,0.0,0.0,0.0,0.0,0.0,0.0,0.0,0.0,0.0,0.0,0.0,0.0,0.4911,0.9327,0.9469,0.9406,0.9703,0.9836,0.9868,1.0148,1.0102,1.0227,1.0636,1.0829,1.0974,1.0953,1.1007,1.124,1.153,1.1545,1.1667,1.1921,1.1864,1.1959,1.1904,1.1904,1.1904,1.1904,1.1904,1.1904,1.1898,1.1952,1.1681,1.1301,1.1043,1.0994,1.1003,1.0974,1.0934,1.1063,1.1509,1.1726,1.1797,0.0,1.0789,1.0386,1.0386,1.0646,0.9956,0.5229,0.4037,0.4273,0.4176,0.4211,0.5607,1.1182,1.2567,1.2546,1.2574,1.2484,1.2564,1.2442,0.5779,0.0,0.0,0.0,0.0,0.0,0.0,0.0,0.0,0.0,0.0,0.0,0.2698,0.694,1.2951,1.3478,1.3235,1.2813,1.2617,1.244,1.2457,1.2155,1.1789,1.1653,1.1454,1.1098,1.0701,0.0,0.0,0.0,0.0,0.0,0.0,0.0,0.0,0.0,0.0,0.0,0.0,0.0,0.0,0.0,0.0,0.0,0.0,0.0,0.0,0.0,0.0,0.0,0.0327,0.5812,0.9849,0.9772,0.9777,0.9829,0.9817,0.981,1.0088,1.0623,1.0781,1.0665,1.0684,1.1241,1.1538,1.155,1.1558,1.1694,1.1683,1.1682,1.1911,1.2529,1.2536,1.2536,1.2536,1.2536,1.2536,1.2536,1.2536,1.2536,1.2536,1.2536,1.2536,1.248,1.1879,1.1608,1.1614,1.1614,1.1664,1.1674,1.1656,1.1965,1.2422,1.1825,1.1681,1.1557,1.1557,1.1681,1.1694,1.1703,1.202,1.2498,1.2498,1.2512,1.2525,1.2515,1.2528,1.2501,1.2501,1.2501,1.2515,1.2542,0.5926,0.0297,0.0,0.0,0.0,0.0,0.0,0.0,0.0,0.0,0.0165,0.033,0.8232,1.3432,1.3451,1.3373,1.3454,1.3276,1.2741,1.247,1.2464,1.251,1.2114,1.1219,1.0939,1.0555,1.0336,0.0,0.0,0.0,0.0,0.0,0.0,0.0,0.0,0.0,0.0,0.0,0.0,0.0,0.0,0.0,0.0,0.0,0.0,0.0,0.0,0.0,0.0,0.1713,0.645,0.8691,0.995,1.0461,1.0468,1.0397,1.0482,1.0446,1.0478,1.0656,1.117,1.1303,1.1416,1.147,1.1613,1.157,1.2065,1.2261,1.2303,1.2306,1.2381,1.2539,1.2491,1.2539,1.2539,1.2539,1.2539,1.2539,1.2539,1.2539,1.2539,1.2539,1.2477,1.2512,1.1817,1.155,1.1663,1.1663,1.187,1.2254,1.2189,1.2338,1.2452,1.2261,1.2213,1.2185,1.2185,1.2213,1.2289,1.2285,1.2368,1.2443,1.2433,1.2461,1.2467,1.2508,1.2508,1.2501,1.2501,1.2501,1.2508,1.2515,1.063,0.7162,0.108,0.0,0.0,0.0,0.0,0.0,0.0,0.0,0.2465,0.8987,1.191,1.3446,1.3443,1.336,0.0,0.0,1.2134,1.2509,1.2456,1.2567,0.9601,0.3333,0.8539,0.0,0.0,0.0,0.0,0.0,0.0,0.0,0.0,0.0,0.0,0.0,0.0,0.0,0.0,0.0,0.0,0.0,0.0,0.0,0.0,0.0,0.0,0.0,0.2288,0.5546,0.9581,1.0198,1.0335,1.0704,1.0658,1.0719,1.0643,1.0672,1.0819,1.1084,1.1399,1.1633,1.1636,1.1809,1.1918,1.1992,1.2313,1.2498,1.2553,1.2491,1.2532,1.2539,1.2461,1.2501,1.2501,1.2501,1.2501,0.0,1.2501,1.2501,1.2501,1.2501,1.2454,0.0,0.0,0.0,0.0,0.0,0.0,1.2477,1.2532,1.2553,1.2553,1.2553,1.2553,1.2553,1.2553,1.2553,1.2574,1.2512,1.2532,1.2553,1.2481,1.2549,1.244,1.244,1.2487,1.2534,1.2534,1.2534,1.2534,1.2534,0.0,0.0,0.636,0.2529,0.0,0.0,0.0,0.0,0.0,0.0,0.348,1.2484,1.2912,1.2759,1.2999,0.0,0.0,0.0,0.0,0.0,1.2929,0.0,0.0,0.0,0.0,0.0,0.0,0.0,0.0,0.0,0.0,0.0,0.0,0.0,0.0,0.0,0.0,0.0,0.0,0.0,0.0,0.0,0.0,0.0,0.0,0.0,0.0,0.0,0.6064,1.0141,1.0677,1.0781,1.0754,1.0751,1.0752,1.0743,1.0862,1.0763,1.1034,1.1599,1.1653,1.1643,0.0,0.0,0.0,0.0,0.0,1.2532,1.2501,1.2501,1.2501,1.2501,1.2501,1.2501,1.2501,1.2501,1.2501,1.2501,1.2501,1.2501,1.2501,1.2522,1.2528,1.2515,1.2525,1.2539,1.2442,1.2574,0.0,0.0,0.0,0.0,0.0,1.2501,1.2501,1.2501,1.2501,1.2501,1.2508,1.2522,1.2528,1.2528,1.2549,1.2494,1.2594,1.2594,1.2536,1.2628,1.2628,1.2628,1.2628,1.2628,1.2642,1.2836,1.3387,0.595,0.0,0.0,0.0,0.0,0.0,0.0,0.3533,1.247,0.0,0.0,1.274,1.3157,1.3492,1.3431,1.3429,1.3472,1.3354,1.2856,1.2604,1.2445,1.186,1.1594,1.164,1.1592,0.7654,0.0,0.0,0.0,0.0,0.0,0.0,0.0,0.0,0.0,0.0,0.0,0.0,0.0,0.0,0.0,0.0,0.0,0.0,0.7769,0.9337,1.0616,1.0711,1.1177,1.1186,1.0789,1.1104,1.1413,1.1441,1.1389,1.1409,1.1613,1.199,1.2359,1.2388,1.2402,0.0,1.2454,1.2461,1.2474,1.2501,1.2501,1.2501,1.2501,0.0,0.0,1.2501,1.2501,1.2501,1.2501,1.2501,1.2501,1.2508,1.2474,1.2527,1.2507,1.2522,1.244,1.2574,1.2454,1.2461,1.2467,1.2494,1.2501,1.2501,1.2501,1.2501,1.2501,1.2501,1.2501,0.0,1.2487,1.2527,1.2554,0.0,1.2562,1.2589,1.3082,1.3269,1.329,1.329,1.329,1.329,1.329,1.3219,1.3308,1.3356,0.6007,0.0,0.0,0.0,0.0,0.0,0.0,0.3583,1.3056,1.3964,1.3796,1.4013,1.4013,1.3923,1.3396,1.3372,1.3336,1.3329,1.3221,1.2929,1.2457,1.1858,1.1537,1.1636,1.1536,0.7666,0.0,0.0,0.0,0.0,0.0,0.0,0.0,0.0,0.0,0.0,0.0,0.0,0.0,0.0,0.7779,0.0,0.0,0.9586,1.0108,1.0446,1.0812,1.1166,1.1392,1.1537,1.1241,1.1389,1.1598,1.1599,1.1603,1.1724,1.21,1.24,1.2553,1.2546,1.2553,1.2427,1.2501,1.2501,1.2501,1.2501,1.2576,1.2454,1.246,1.2534,1.2568,1.2568,1.2568,1.2568,1.2568,1.2568,1.2568,1.2574,1.2813,1.284,1.2509,1.2437,1.2521,1.2467,1.2541,1.2568,1.2568,1.2568,1.2568,1.2568,1.2568,1.2568,1.2568,1.2568,1.2568,1.2423,1.2496,1.2682,1.3027,1.2942,1.301,1.3064,1.3394,1.3457,1.3349,1.3349,1.3411,1.3459,1.3459,1.341,1.3351,1.3385,0.9756,0.5193,0.0672,0.0,0.0,0.0,0.4177,0.9065,1.376,1.4305,1.4291,1.4386,1.4379,1.4201,1.3844,1.3777,1.3702,1.3627,1.3268,1.2963,1.2574,1.2206,1.1945,1.1797,1.163,0.756,0.0,0.0,0.0,0.0,0.0,0.0,0.0,0.0,0.0,0.0,0.0,0.8014,0.9363,0.9244,0.9104,0.9525,0.9785,1.0093,1.0575,1.085,1.0989,1.1523,1.1565,1.1681,1.1742,1.1728,1.1796,1.1729,1.1782,1.1998,1.2436,1.2471,1.2539,1.2494,1.2501,1.2515,1.2542,1.2542,1.2556,1.2434,1.2548,1.2608,1.2615,1.2735,1.2628,1.2628,1.2628,1.2628,1.2628,1.2628,1.2648,1.2668,1.3137,1.3143,1.2668,1.2668,1.2595,1.2661,1.2595,1.2628,1.2628,1.2628,1.2628,1.2628,1.2628,1.2628,1.2628,1.2628,1.2628,1.2635,1.2661,1.2862,1.3219,1.3415,1.3363,1.3466,1.3466,1.3397,1.3318,1.3318,1.3412,1.3492,1.3499,1.3586,1.3502,1.3528,1.3588,1.0422,0.1371,0.0,0.0699,0.2463,0.9545,1.4258,1.434,1.4319,1.4299,1.4299,1.4366,1.4242,1.4298,1.4256,1.4235,1.3885,1.3485,1.3037,1.2754,1.2651,1.2505,1.2196,1.1881,0.8022,0.1052,0.0302,0.0,0.7649,0.0,0.0,0.7935,0.7475,0.7216,0.0,0.0,0.7886,0.8845,0.8936,0.8948,0.9007,0.9888,1.0595,1.0683,1.1186,1.1523,1.1572,1.1569,1.1757,1.234,1.24,1.2331,1.2366,1.234,1.2429,1.2443,1.256,1.2488,1.2501,1.2501,1.2562,1.2541,1.2541,1.245,1.2575,1.2435,1.2769,1.3269,1.3283,1.329,1.329,1.329,1.329,1.329,1.329,1.336,1.3308,1.3346,1.3367,1.3315,1.3315,1.3308,1.3281,1.3332,1.329,1.329,1.329,1.329,1.329,1.329,1.329,1.329,1.329,1.329,1.3318,1.3281,1.2906,1.2701,1.3177,1.3485,1.3416,1.3416,1.3429,1.3442,1.3442,1.3455,1.364,1.4166,1.4187,1.4194,1.4201,1.4194,1.0893,0.1385,0.0,0.2998,1.1522,1.3591,1.4373,1.4353,1.4319,1.4299,1.4299,1.4285,1.4265,1.4251,1.4297,1.4228,1.4222,1.4266,1.3916,1.3378,1.3112,1.2972,1.2657,1.2293,0.9634,0.5121,0.1664,0.0,0.7932,0.0,0.0,0.0,0.8347,0.8262,0.8472,0.8382,0.8552,0.9313,0.918,0.8998,0.9337,1.0122,1.0799,0.0,1.1402,1.1606,1.1544,1.1851,1.2149,1.2429,1.2464,1.2477,1.2477,1.2532,1.2567,1.2567,1.2467,1.2542,1.2467,1.2474,1.2541,1.2529,1.2861,1.3061,1.2963,1.3037,1.3085,1.3415,1.3343,1.3384,1.3384,1.3384,1.3384,1.3384,1.3384,1.3418,1.3473,1.3342,1.3383,1.3444,1.3358,1.3392,1.3365,1.3466,1.3384,1.3384,1.3384,1.3384,1.3398,1.3322,1.3349,1.337,1.3444,1.3471,1.3485,1.3372,1.3257,1.3147,1.3736,1.3619,1.3488,1.3844,1.3844,1.3844,1.3844,1.3912,1.3973,1.4333,1.4228,1.429,1.429,1.4224,1.103,0.141,0.4795,0.9843,1.3787,1.4373,1.438,1.4326,1.438,1.4387,1.4306,1.4373,1.4387,1.4306,1.4245,1.4386,1.4386,1.4091,1.3926,1.3579,1.3315,1.3051,1.299,1.2516,1.015,0.5974,0.1893,0.0,0.7775,0.0,0.0,0.897,0.9158,0.9129,0.9118,0.9255,0.9566,0.9982,0.964,0.9559,1.0238,1.0684,0.0,1.1558,1.1798,1.1782,1.1775,1.2216,1.2464,1.2498,1.244,1.2501,1.2501,1.2501,1.2501,1.2501,1.2542,1.2454,1.2561,1.2608,1.2702,1.2681,1.3185,1.3374,1.3415,1.3356,1.3404,1.3404,1.3349,1.3424,1.3464,1.3331,1.3351,1.3351,1.3351,1.3351,1.3358,1.3465,1.3512,1.3695,1.3626,1.3666,1.364,1.36,1.3526,1.3351,1.3351,1.3351,1.3372,1.3479,1.3512,1.3709,1.3633,1.3666,1.3666,1.3666,1.3693,1.3727,1.4256,1.3939,1.3787,1.4146,1.4326,1.4326,1.4326,1.427,1.4373,1.4373,1.4312,1.4242,1.4242,1.4289,1.1025,0.1438,0.7048,1.253,1.2454,1.3566,1.4475,1.4428,1.4516,1.4529,1.4428,1.4516,1.4529,1.4428,1.4421,1.4421,1.4421,1.4211,1.4068,1.4027,1.3668,1.3424,1.3302,1.288,1.0465,0.6149,0.1949,0.0,0.0,0.0,0.9683,0.9774,0.9829,0.9802,0.9808,1.0183,1.0642,1.0684,1.0602,1.0799,1.1379,1.1559,1.1578,1.1592,1.2039,1.2543,1.2402,1.2443,1.2498,1.2481,1.2501,1.2501,0.0,1.2501,1.2501,1.2501,1.2481,1.2561,1.2568,1.3034,1.3353,1.3329,1.3336,1.3404,1.339,1.339,1.3397,1.3397,1.3397,1.3478,1.3452,1.3416,1.3475,1.3475,1.3475,1.3475,1.3475,1.3475,1.366,1.4194,1.4194,1.4201,1.4194,1.4187,1.3831,1.3475,1.3475,1.3475,1.3475,1.3475,1.3831,1.4194,1.4194,1.4201,1.4201,1.4201,1.4305,1.4242,1.4242,1.4352,1.4285,1.4285,1.4285,1.4285,1.4285,1.4216,1.4309,1.4309,1.4249,1.4348,1.4348,1.4381,1.1044,0.1468,0.441,0.7889,0.7816,1.1892,1.4726,1.4726,1.4733,1.4733,1.4726,1.4733,1.4733,1.4726,1.4726,1.4726,1.4726,1.4719,1.4645,1.4496,1.434,1.4048,1.3614,1.3365,1.0969,0.6149,0.1949,0.0,0.0,0.0,1.045,1.0386,1.044,1.0433,1.0371,1.0589,1.0713,1.0739,1.1,1.1348,1.1592,1.1667,1.1583,1.158,1.2108,1.2519,1.256,1.2433,1.2447,1.2494,1.2501,0.0,0.0,0.0,0.0,1.2501,1.2481,1.2615,1.304,1.3353,1.3343,1.3322,1.3329,1.3397,1.3378,1.3727,1.395,1.4041,1.3519,1.3546,1.3947,1.3995,1.4016,1.4016,1.4016,1.4016,1.4022,1.3953,1.4174,1.4361,1.4283,1.4325,1.4325,1.4325,1.415,1.3941,1.3912,1.4016,1.4036,1.396,1.4174,1.4368,1.4297,1.4325,1.4325,1.4325,1.4251,1.436,1.436,1.4296,1.4223,1.4223,1.4223,1.4223,1.4223,1.4256,1.4477,1.4847,1.4895,1.4929,1.4929,1.4956,1.1431,0.1469,0.4412,0.8832,1.213,1.3802,1.474,1.474,1.4835,1.4855,1.4746,1.4835,1.4848,1.4746,1.474,1.474,1.474,1.474,1.4713,1.4665,1.4516,1.4319,1.4075,1.3634,1.1036,0.6431,0.2037,0.0,0.0,0.9774,1.0732,1.0739,1.0733,1.0649,1.0699,1.088,1.1083,1.1047,1.1402,1.1701,1.1907,1.1969,1.1891,1.194,1.2179,1.2574,1.2562,1.2427,1.2562,1.2508,1.2549,0.0,0.0,0.0,0.0,1.2427,1.245,1.2769,1.3367,1.3343,1.3329,1.3478,1.3478,1.3553,1.3702,1.4055,1.4281,1.4194,1.3548,1.3747,1.4284,1.434,1.4361,1.4361,1.4361,1.4361,1.4368,1.429,1.4331,1.4345,1.4265,1.4299,1.4306,1.4353,1.4373,1.434,1.427,1.4361,1.4374,1.4297,1.4366,1.4251,1.4346,1.4236,1.4276,1.4276,1.4336,1.4403,1.459,1.4665,1.4557,1.4557,1.4557,1.4557,1.4557,1.4598,1.4821,1.5195,1.5243,1.5278,1.5278,1.5121,1.1737,0.1481,0.594,1.1547,1.4698,1.508,1.4896,1.4896,1.4984,1.5004,1.4909,1.4991,1.5004,1.4903,1.4896,1.4896,1.4896,1.4896,1.4875,1.4821,1.4726,1.4577,1.4373,1.3971,1.1357,0.6651,0.2104,0.0,1.0397,1.0707,1.0725,1.0743,1.0737,1.0737,1.075,1.1172,1.1635,1.1657,1.1543,1.1726,0.0,0.0,1.2395,1.2539,1.256,1.2556,1.2534,1.2554,1.2507,0.0,0.0,0.0,0.0,0.0,0.0,1.2601,0.0,1.284,1.3349,1.3329,1.3478,1.3459,1.3465,1.3709,1.4208,1.4215,1.4215,1.3865,1.3654,1.3727,1.427,1.4238,1.4306,1.4312,1.4306,1.4306,1.4319,1.4312,1.4312,1.4319,1.4319,1.4319,1.434,1.4289,1.4336,1.4323,1.4367,1.4326,1.4319,1.4319,1.4229,1.4336,1.4336,1.4437,1.4362,1.4362,1.4368,1.4564,1.5125,1.5139,1.5146,1.5146,1.5146,1.5146,1.5146,1.5257,1.5176,1.5176,1.5279,1.5181,1.5181,1.5221,1.1951,0.2256,0.9073,1.5201,1.5238,1.512,1.5181,1.5181,1.5181,1.5181,1.5181,1.5181,1.5181,1.5181,1.5181,1.5181,1.5181,1.5181,1.512,1.4984,1.4984,1.4835,1.4536,1.457,1.195,0.6978,0.2148,0.0,1.06,1.1087,1.1389,1.1406,1.1303,1.1365,1.1308,1.1468,1.1664,1.1653,1.1619,1.1691,0.0,0.0,0.0,1.2414,1.281,0.0,1.3198,1.2725,0.0,0.0,0.0,1.2615,1.3061,1.3198,0.0,0.0,1.3132,1.322,1.3336,1.3318,1.3465,1.3429,1.379,1.4208,1.4368,1.4304,1.4183,1.4183,1.4041,1.4062,1.4245,1.4285,1.436,1.4269,1.4346,1.4242,1.4249,1.4316,1.4336,1.4256,1.4256,1.4256,1.4262,1.4295,1.4497,1.5049,1.5014,1.4631,1.4256,1.4256,1.4282,1.4309,1.4867,1.4901,1.4929,1.4929,1.5011,1.5101,1.5107,1.5183,1.5259,1.5259,1.5259,1.5259,1.5259,1.5293,1.5126,1.5126,1.516,1.5181,1.5181,1.5221,1.4266,1.1726,1.3481,1.5228,1.5153,1.5167,1.5181,1.5181,1.5181,1.5181,1.5181,1.5181,1.5181,1.5181,1.5181,1.5181,1.5181,1.5181,1.5167,1.5126,1.5126,1.5038,1.4855,1.5073,1.4277,1.2489,0.4026,0.0,1.1066,1.1351,1.158,1.1571,1.1605,1.1633,1.1592,1.1782,1.179,1.1328,1.1161,0.0,0.0,0.0,0.0,0.0,0.0,0.0,1.3085,1.2664,1.2548,0.0,1.2682,0.0,1.338,1.3356,1.3466,0.0,1.3376,1.341,1.3325,1.3641,1.379,1.376,1.3939,1.4014,1.4352,1.4258,1.4299,1.4299,1.4299,1.4299,1.4299,1.4367,1.4256,1.4323,0.0,1.4584,1.4355,1.4645,1.4665,1.474,1.474,1.474,1.4746,1.4631,1.4841,1.5229,1.5292,1.4936,1.4725,1.478,1.4604,1.4841,1.5032,1.5264,1.5128,1.5128,1.519,1.5252,1.5252,1.5126,1.5181,1.5181,1.5181,1.5181,1.5181,1.5181,1.5181,1.5181,1.5181,1.5181,1.5181,1.5201,1.5215,1.5187,1.5208,1.5215,1.5187,1.5181,1.5181,1.5181,1.5181,1.5181,1.5181,1.5181,1.5181,1.5181,1.5181,1.5215,1.5282,1.5282,1.5282,1.5282,1.535,1.5309,1.5167,1.5187,1.5167,1.4732,0.767,0.4108,1.142,1.1585,1.166,1.1643,1.171,1.1677,1.1681,1.2043,1.2023,1.0893,0.0,0.0,1.0698,0.0,1.1123,1.2333,0.0,1.2494,1.2534,1.2489,1.2542,1.2635,1.3017,1.3349,1.337,1.3342,1.3318,1.3445,1.3492,1.3512,1.3512,1.3981,1.4298,1.4277,1.374,1.3806,1.4299,1.4299,1.4299,1.4299,1.4319,1.4326,1.4333,1.4289,1.437,1.4397,0.0,0.0,1.4421,1.497,1.516,1.5181,1.5181,1.5181,1.5195,1.5142,1.519,1.521,1.514,1.5181,1.514,1.5257,1.5264,1.519,1.519,1.5272,1.5181,1.5181,1.5181,1.5181,1.5181,1.5181,1.5181,1.5181,1.5181,1.5187,1.5208,1.5228,1.5242,1.5242,1.5228,1.5215,1.5215,1.5194,1.5187,1.5208,1.5215,1.5221,1.5242,1.5208,1.5187,1.5208,1.5215,1.5221,1.5242,1.5242,1.5242,1.5242,1.5242,1.5303,1.5438,1.5438,1.5438,1.5438,1.5567,1.5574,1.5438,1.5445,1.5267,1.5096,1.2254,1.0099,1.1518,1.1667,1.1643,1.1669,1.202,1.2289,1.2283,1.1653,0.0,0.0,0.0,1.0141,1.0657,1.1107,0.0,1.2318,0.0,0.0,0.0,0.0,1.2712,0.0,0.0,0.0,0.0,0.0,0.0,0.0,0.0,0.0,0.0,1.4201,1.4283,1.4258,1.4258,1.4272,1.4299,1.4299,1.4299,1.4299,1.4236,1.4289,1.4296,1.4262,1.4584,1.5073,0.0,0.0,1.5092,1.5169,1.519,1.5106,1.5106,1.5106,1.5113,1.514,1.5147,1.5147,1.5174,1.5181,1.5174,1.5126,1.5126,1.5147,1.5147,1.516,1.5181,1.5181,1.5181,1.5181,1.5181,1.5181,1.5181,1.5181,1.5181,1.5215,1.5147,1.5274,1.5162,1.5162,1.5261,1.5174,1.5174,1.5262,1.5221,1.516,1.5174,1.5221,1.5149,1.5147,1.5228,1.516,1.5174,1.5227,1.5155,1.5162,1.5361,1.5368,1.5368,1.5567,1.5601,1.5601,1.5601,1.5601,1.5628,1.5628,1.5601,1.5435,1.5448,1.5455,1.4861,1.4467,1.1619,1.1782,1.2141,1.2142,1.2333,1.2543,1.2438,0.0,0.0,0.0,0.0,1.0,1.0551,0.0,0.0,0.0,0.0,0.0,0.0,0.0,0.0,0.0,0.0,0.0,0.0,0.0,0.0,0.0,0.0,0.0,0.0,1.4325,1.4224,1.4299,1.4299,1.4299,1.4299,1.4373,1.4229,1.4229,1.4376,1.4443,1.4819,1.4787,1.4903,1.5162,0.0,0.0,0.0,1.5113,1.512,1.5181,1.5181,1.5181,1.5181,1.5181,1.5181,1.5194,1.5269,1.5107,1.512,1.52,1.512,1.5194,1.5276,1.5107,1.5127,1.52,1.5221,1.5221,1.5221,1.5221,1.5221,1.5221,1.5221,1.5247,1.552,1.5588,1.5642,1.5642,1.5581,1.5533,1.5328,1.5267,1.5247,1.5122,1.5527,1.5753,1.5635,1.5705,1.5643,1.5321,1.5527,1.576,1.5635,1.5642,1.5642,1.5842,1.5842,1.587,1.575,1.575,1.575,1.575,1.5832,1.5832,1.575,1.5764,1.5784,1.5609,1.5549,1.5535,1.1769,1.2086,1.2456,1.2457,1.2491,1.2484,1.2565,1.1509,0.0,0.0,0.0,1.0025,1.0527,0.0,0.0,0.0,0.0,0.0,0.0,0.0,0.0,0.0,0.0,0.0,0.0,0.0,0.0,0.0,0.0,0.0,0.0,0.0,1.4312,1.434,1.4346,1.436,1.4216,1.4316,1.4376,1.4563,1.4531,1.4787,1.5174,1.5142,1.521,0.0,0.0,0.0,0.0,1.5181,1.5181,1.5181,1.5181,1.5181,1.5181,1.5181,1.5201,1.5248,1.5174,1.5234,1.5479,1.5401,1.5281,1.5107,1.5227,1.5261,1.5479,1.5408,1.5442,1.5442,1.5442,1.5442,1.5442,1.5442,1.5462,1.5488,1.6084,1.6112,1.6133,1.6133,1.6105,1.589,1.5488,1.5455,1.5448,1.5475,1.5883,1.6098,1.6133,1.6133,1.5938,1.5529,1.5904,1.6098,1.6133,1.6133,1.6133,1.6133,1.6133,1.5986,1.59,1.59,1.59,1.59,1.6022,1.6022,1.59,1.5906,1.5934,1.5763,1.5656,1.5015,1.2121,1.2409,1.2464,1.2447,1.2481,1.245,1.2445,0.0,0.0,0.9816,0.9817,0.9956,1.0622,0.0,0.0,0.0,0.0,1.1724,0.0,0.0,0.0,0.0,0.0,0.0,0.0,0.0,0.0,0.0,0.0,0.0,0.0,0.0,1.436,1.4303,1.4309,1.437,1.4322,1.4335,1.4531,1.5097,1.5066,1.5142,1.5149,1.5286,1.516,0.0,0.0,0.0,0.0,1.5181,1.5181,1.5181,1.5181,1.5181,1.5181,1.5181,1.5269,1.5194,1.5207,1.5506,1.6022,1.6036,1.5622,1.5202,1.5215,1.5615,1.6022,1.6036,1.6036,1.6036,1.6036,1.6036,1.6036,1.6036,1.5945,1.6035,1.6035,1.6144,1.6042,1.6042,1.6131,1.6035,1.6035,1.5932,1.6084,1.6014,1.6035,1.6089,1.6029,1.6042,1.6042,1.6042,1.6117,1.6089,1.6029,1.6042,1.6042,1.6042,1.6042,1.6049,1.6062,1.6062,1.6062,1.6062,1.6076,1.6076,1.6062,1.609,1.611,1.611,1.6144,1.349,1.2407,1.2574,1.2521,1.2487,1.2481,1.2553,1.2492,0.0,0.0,0.983,0.9854,0.9876,1.0141,1.0464,1.0719,1.0988,1.1355,1.1796,1.2457,0.0,0.0,0.0,0.0,0.0,0.0,0.0,0.0,0.0,0.0,0.0,0.0,0.0,0.0,1.4276,1.4652,1.4867,1.4929,1.4835,1.4882,1.5257,1.5217,1.5286,1.5286,1.5153,0.0,0.0,0.0,0.0,0.0,1.5181,1.5181,1.5194,1.5282,1.5127,1.514,1.5227,1.5294,1.5169,1.5649,1.5918,1.6182,1.6076,1.5906,1.5689,1.5791,1.5966,1.6189,1.6083,1.611,1.611,1.611,1.611,1.611,1.611,1.6151,1.6192,1.6192,1.6042,1.6083,1.6083,1.6035,1.6192,1.6192,1.6144,1.6124,1.6179,1.6192,1.6015,1.6076,1.6083,1.6083,1.6083,1.6029,1.6015,1.6076,1.6083,1.6083,1.6083,1.6083,1.6083,1.6083,1.6083,1.6083,1.6083,1.6083,1.6083,1.6083,1.6096,1.6123,1.5971,1.2706,0.8256,1.2613,1.2697,1.2702,1.2759,1.2698,1.2567,0.0,0.0,0.0,0.9857,0.9751,0.985,0.978,1.028,1.0678,1.0692,1.1275,1.1789,1.2126,1.2731,0.0,0.0,0.0,0.0,0.0,0.0,0.0,0.0,0.0,0.0,0.0,0.0,0.0,1.4618,1.4998,1.5209,1.525,1.5169,1.5224,1.5224,1.5133,1.5181,1.5181,1.5181,0.0,0.0,0.0,0.0,0.0,1.5181,1.5208,1.5262,1.5174,1.5247,1.5493,1.5401,1.5468,1.5515,1.6014,1.6083,1.6138,1.6049,1.6083,1.6062,1.6151,1.6124,1.6144,1.6056,1.6083,1.6083,1.6083,1.6083,1.6083,1.6083,1.6083,1.6083,1.6083,1.6083,1.6083,1.6083,1.6083,1.6083,1.6083,1.6083,1.6083,1.6083,1.6083,1.6083,1.6083,1.6083,1.6083,1.6083,1.6083,1.6083,1.6083,1.6083,1.6083,1.6083,1.6083,1.6083,1.6083,1.6083,1.6083,1.6083,1.6083,1.6083,1.6083,1.6083,1.6117,1.5978,1.2094,0.6645,1.3123,1.3418,1.3383,1.3383,1.2936,1.2464,0.0,0.0,0.9856,0.9838,0.9764,0.9751,0.9774,1.0346,1.0678,1.0692,1.1275,1.1524,1.1625,0.0,0.0,0.0,0.0,0.0,0.0,0.0,0.0,0.0,0.0,0.0,0.0,0.0,0.0,0.0,1.5162,1.5224,1.5174,1.5181,1.5181,1.5181,1.5181,1.5181,1.5181,0.0,0.0,0.0,0.0,0.0,0.0,1.5181,1.5269,1.5214,1.5214,1.5506,1.6043,1.6043,1.6126,1.6055,1.6055,1.6151,1.6083,1.6083,1.6083,1.6083,1.6083,1.6083,1.6083,1.6083,1.6083,1.6083,1.6083,1.6083,1.6083,1.6083,1.6083,1.6083,1.6083,1.6083,1.6083,1.6083,1.6083,1.6083,1.6083,1.6083,1.6083,1.6083,1.6083,1.6083,1.6083,1.6083,1.6083,1.6083,1.6083,1.6083,1.6083,1.6083,1.6083,1.6083,1.6083,1.6083,1.6083,1.6083,1.6083,1.6083,1.6083,1.6083,1.6083,1.6083,1.6096,1.6137,1.5978,1.0297,1.2529,1.302,1.3353,1.3406,1.2942,1.2338,1.1966,1.1145,1.0287,0.9825,1.0154,1.0371,1.0438,1.0596,1.0829,1.1241,1.1475,1.1556,0.0,0.0,0.0,0.0,0.0,0.0,0.0,0.0,0.0,0.0,0.0,0.0,0.0,0.0,0.0,0.0,0.0,1.514,1.5181,1.5181,1.5181,1.5181,1.5181,1.5181,0.0,0.0,0.0,0.0,0.0,0.0,0.0,1.5289,1.5174,1.5234,1.5635,1.5945,1.6196,1.6103,1.6172,1.6008,1.6008,1.6042,1.6083,1.6083,1.6083,1.6083,1.6083,1.6083,1.6083,1.6083,1.6083,1.6083,1.6083,1.6083,1.6083,1.6083,1.6083,1.6083,1.6083,1.6083,1.6083,1.6083,1.6083,1.6083,1.6083,1.6083,1.6083,1.6083,1.6083,1.6083,1.6083,1.6083,1.6083,1.6083,1.6083,1.6083,1.6083,1.6083,1.6083,1.6083,1.6083,1.6083,1.6083,1.6083,1.6083,1.6083,1.6083,1.6083,1.6083,1.6083,1.6117,1.5978,0.8453,0.3223,1.188,1.2421,1.2782,1.2691,1.24,1.1969,1.1365,1.0987,1.0568,0.9934,1.0287,1.076,1.0714,1.048,1.0585,1.1172,1.1622,1.1949,0.0,0.0,0.0,0.0,0.0,0.0,0.0,0.0,0.0,0.0,0.0,0.0,0.0,0.0,0.0,0.0,0.0,0.0,1.5181,1.5181,1.5181,1.5181,1.5181,0.0,0.0,0.0,0.0,0.0,0.0,0.0,0.0,1.5261,1.5328,1.5594,1.598,1.6089,1.6151,1.6049,1.6083,1.6083,1.6083,1.6083,1.6083,1.6083,1.6083,1.6083,1.6083,1.6083,1.6083,1.6083,1.6083,1.6083,1.6083,1.6083,1.6083,1.6083,1.6083,1.6083,1.6083,1.6083,1.6083,1.6083,1.6083,1.6083,1.6083,1.6083,1.6083,1.6083,1.6083,1.6083,1.6083,1.6083,1.6083,1.6083,1.6083,1.6083,1.6083,1.6083,1.6083,1.6083,1.6083,1.6083,1.6083,1.6083,1.6083,1.6083,1.6083,1.6083,1.6083,1.6096,1.6137,1.5998,0.9275,0.383,0.0,1.1596,1.1528,1.1534,1.157,1.1462,1.0776,1.0683,0.0,0.9908,1.0287,1.0656,1.0704,1.0208,1.004,1.0601,1.1691,0.0,0.0,0.0,0.0,0.0,0.0,0.0,0.0,0.0,0.0,0.0,0.0,0.0,0.0,0.0,0.0,0.0,0.0,0.0,0.0,0.0,1.5181,0.0,0.0,0.0,0.0,0.0,0.0,0.0,0.0,0.0,0.0,1.5255,1.5535,1.6055,1.6069,1.6158,1.6083,1.6083,1.6083,1.6083,1.6083,1.6083,1.6083,1.6083,1.6083,1.6083,1.6083,1.6083,1.6083,1.6083,1.6083,1.6083,1.6083,1.6083,1.6083,1.6083,1.6083,1.6083,1.6083,1.6083,1.6083,1.6083,1.6083,1.6083,1.6083,1.6083,1.6083,1.6083,1.6083,1.6083,1.6083,1.6083,1.6083,1.6083,1.6083,1.6083,1.6083,1.6083,1.6083,1.6083,1.6083,1.6083,1.6083,1.6083,1.6083,1.6083,1.6083,1.6083,1.6083,1.6117,1.6151,1.5998,1.6031,1.0314,1.0104,0.0,1.1664,1.1636,1.1317,1.0806,0.0,1.0317,0.9923,0.9869,0.9896,1.0009,1.0038,1.0215,1.0591,1.0741,1.1782,1.2386,0.0,0.0,0.0,0.0,0.0,0.0,0.0,0.0,0.0,0.0,0.0,0.0,0.0,0.0,0.0,0.0,0.0,0.0,0.0,0.0,0.0,0.0,0.0,0.0,0.0,0.0,0.0,0.0,0.0,0.0,0.0,1.5959,1.6021,1.6069,1.6179,1.6049,1.6083,1.6083,1.6083,1.6083,1.6083,1.6083,1.6083,1.6083,1.6083,1.6083,1.6083,1.6083,1.6083,1.6083,1.6083,1.6083,1.6083,1.6083,1.6083,1.6083,1.6083,1.6083,1.6083,1.6083,1.6083,1.6083,1.6083,1.6083,1.6083,1.6083,1.6083,1.6083,1.6083,1.6083,1.6083,1.6083,1.6083,1.6083,1.6083,1.6083,1.6083,1.6083,1.6083,1.6083,1.6083,1.6083,1.6083,1.6083,1.6083,1.6083,1.6083,1.6083,1.6083,1.609,1.613,1.5998,1.6171,1.0279,0.9745,1.0424,1.1247,1.1186,1.0941,1.0652,1.0379,1.0055,0.9797,0.981,0.9751,0.9784,0.9813,1.0514,1.1087,1.1107,1.1619,0.0,0.0,0.0,0.0,0.0,0.0,0.0,0.0,0.0,0.0,0.0,0.0,0.0,0.0,0.0,0.0,0.0,0.0,0.0,0.0,0.0,0.0,0.0,0.0,0.0,0.0,0.0,0.0,0.0,0.0,0.0,1.6055,1.6131,1.6158,1.6165,1.6049,1.6083,1.6083,1.6083,1.6083,1.6083,1.6083,1.6083,1.6083,1.6083,1.6083,1.6083,1.6083,1.6083,1.6083,1.6083,1.6083,1.6083,1.6083,1.6083,1.6083,1.6083,1.6083,1.6083,1.6083,1.6083,1.6083,1.6083,1.6083,1.6083,1.6083,1.6083,1.6083,1.6083,1.6083,1.6083,1.6083,1.6083,1.6083,1.6083,1.6083,1.6083,1.6083,1.6083,1.6083,1.6083,1.6083,1.6083,1.6083,1.6083,1.6083,1.6083,1.6083,1.6083,1.6083,1.6096,1.6137,1.5998,1.1073,0.8259,0.9784,1.011,1.0657,1.0752,1.088,1.0665,0.9987,0.9836,0.9848,0.9849,0.9863,0.9744,0.9793,1.0671,1.1468,1.1633,0.0,0.0,0.0,0.0,0.0,0.0,0.0,0.0,0.0,0.0,0.0,0.0,0.0,0.0,0.0,0.0,0.0,0.0,0.0,0.0,0.0,0.0,0.0,0.0,0.0,0.0,0.0,0.0,0.0,0.0,0.0,0.0,1.6083,1.6083,1.6083,1.6083,1.6083,1.6083,1.6083,1.6083,1.6083,1.6083,1.6083,1.6083,1.6083,1.6083,1.6083,1.6083,1.6083,1.6083,1.6083,1.6083,1.6083,1.6083,1.6083,1.6083,1.6083,1.6083,1.6083,1.6083,1.6083,1.6083,1.6083,1.6083,1.6083,1.6083,1.6083,1.6083,1.6083,1.6083,1.6083,1.6083,1.6083,1.6083,1.6083,1.6083,1.6083,1.6083,1.6083,1.6083,1.6083,1.6083,1.6083,1.6083,1.6083,1.6083,1.6083,1.6083,1.6083,1.6083,1.6083,1.611,1.6151,1.5784,0.5023,0.4835,0.9777,0.9914,1.0194,1.1169,1.1504,1.1192,1.0088,0.9817,0.9849,0.9829,0.979,0.9838,0.9813,1.0335,1.1076,0.0,0.0,0.0,0.0,0.0,0.0,0.0,0.0,0.0,0.0,0.0,0.0,0.0,0.0,0.0,0.0,0.0,0.0,0.0,0.0,0.0,0.0,0.0,0.0,0.0,0.0,0.0,0.0,0.0,0.0,0.0,0.0,0.0,1.6083,1.6083,1.6083,1.6083,1.6083,1.6083,1.6083,1.6083,1.6083,1.6083,1.6083,1.6083,1.6083,1.6083,1.6083,1.6083,1.6083,1.6083,1.6083,1.6083,1.6083,1.6083,1.6083,1.6083,1.6083,1.6083,1.6083,1.6083,1.6083,1.6083,1.6083,1.6083,1.6083,1.6083,1.6083,1.6083,1.6083,1.6083,1.6083,1.6083,1.6083,1.6083,1.6083,1.6083,1.6083,1.6083,1.6083,1.6083,1.6083,1.6083,1.6083,1.6083,1.6083,1.6083,1.6083,1.6083,1.6083,1.6083,1.6083,1.609,1.611,1.5937,0.5,0.0801,0.9744,1.023,1.0982,1.1836,1.1546,1.0915,1.0003,0.9832,0.9769,0.9812,0.9802,1.0168,1.1138,0.0,1.1911,1.2889,0.0,0.0,0.0,0.0,0.0,0.0,0.0,0.0,0.0,0.0,0.0,0.0,0.0,0.0,0.0,0.0,0.0,0.0,0.0,0.0,0.0,0.0,0.0,0.0,0.0,0.0,1.6179,0.0,0.0,0.0,0.0,1.6083,1.6083,1.6083,1.6083,1.6083,1.6083,1.6083,1.6083,1.6083,1.6083,1.6083,1.6083,1.6083,1.6083,1.6083,1.6083,1.6083,1.6083,1.6083,1.6083,1.6083,1.6083,1.6083,1.6083,1.6083,1.6083,1.6083,1.6083,1.6083,1.6083,1.6083,1.6083,1.6083,1.6083,1.6083,1.6083,1.6083,1.6083,1.6083,1.6083,1.6083,1.6083,1.6083,1.6083,1.6083,1.6083,1.6083,1.6083,1.6083,1.6083,1.6083,1.6083,1.6083,1.6083,1.6083,1.6083,1.6083,1.6083,1.6083,1.6083,1.6083,1.6096,1.5931,1.103,0.5611,0.9828,1.0417,1.1351,1.1961,1.1636,1.1214,0.0,0.0,0.0,0.0,0.0,0.0,0.0,1.245,0.0,0.0,0.0,0.0,0.0,0.0,0.0,0.0,0.0,0.0,0.0,0.0,0.0,0.0,0.0,0.0,0.0,0.0,0.0,0.0,0.0,0.0,0.0,0.0,0.0,0.0,0.0,1.6165,1.6083,1.6083,1.6083,1.6083,1.6083,1.6083,1.6083,1.6083,1.6083,1.6083,1.6083,1.6083,1.6083,1.6083,1.6083,1.6083,1.6083,1.6083,1.6083,1.6083,1.6083,1.6083,1.6083,1.6083,1.6083,1.6083,1.6083,1.6083,1.6083,1.6083,1.6083,1.6083,1.6083,1.6083,1.6083,1.6083,1.6083,1.6083,1.6083,1.6083,1.6083,1.6083,1.6083,1.6083,1.6083,1.6083,1.6083,1.6083,1.6083,1.6083,1.6083,1.6083,1.6083,1.6083,1.6083,1.6083,1.6083,1.6083,1.6083,1.6083,1.6083,1.6083,1.6083,1.6083,1.6083,1.6083,1.6096,1.6123,1.613,1.1668,0.9838,0.9858,1.0011,1.0709,1.2044,0.0,1.3207,1.2715,0.0,1.297,0.0,0.0,0.0,0.0,0.0,0.0,0.0,0.0,0.0,0.0,0.0,0.0,0.0,0.0,0.0,0.0,0.0,0.0,0.0,0.0,0.0,0.0,0.0,0.0,0.0,0.0,0.0,0.0,0.0,0.0,1.6192,1.6069,1.6083,1.6083,1.6083,1.6083,1.6083,1.6083,1.6083,1.6083,1.6083,1.6083,1.6083,1.6083,1.6083,1.6083,1.6083,1.6083,1.6083,1.6083,1.6083,1.6083,1.6083,1.6083,1.6083,1.6083,1.6083,1.6083,1.6083,1.6083,1.6083,1.6083,1.6083,1.6083,1.6083,1.6083,1.6083,1.6083,1.6083,1.6083,1.6083,1.6083,1.6083,1.6083,1.6083,1.6083,1.6083,1.6083,1.6083,1.6083,1.6083,1.6083,1.6083,1.6083,1.6083,1.6083,1.6083,1.6083,1.6083,1.6083,1.6083,1.6083,1.6083,1.6083,1.6083,1.6083,1.6083,1.6083,1.6083,1.609,1.6117,1.5744,1.0301,1.0104,0.9899,1.0595,1.1153,0.0,0.0,1.2609,1.2984,1.2909,1.2824,0.0,0.0,0.0,0.0,0.0,0.0,0.0,0.0,0.0,0.0,0.0,0.0,0.0,0.0,0.0,0.0,0.0,0.0,0.0,0.0,0.0,0.0,0.0,0.0,0.0,0.0,0.0,0.0,0.0,1.6056,1.6083,1.6083,1.6083,1.6083,1.6083,1.6083,1.6083,1.6083,1.6083,1.6083,1.6083,1.6083,1.6083,1.6083,1.6083,1.6083,1.6083,1.6083,1.6083,1.6083,1.6083,1.6083,1.6083,1.6083,1.6083,1.6083,1.6083,1.6083,1.6083,1.6083,1.6083,1.6083,1.6083,1.6083,1.6083,1.6083,1.6083,1.6083,1.6083,1.6083,1.6083,1.6083,1.6083,1.6083,1.6083,1.6083,1.6083,1.6083,1.6083,1.6083,1.6083,1.6083,1.6083,1.6083,1.6083,1.6083,1.6083,1.6083,1.6083,1.6083,1.6083,1.6083,1.6083,1.6083,1.6083,1.6083,1.6083,1.6083,1.6083,1.6096,1.6137,1.0378,1.0083,1.0089,1.1233,0.0,0.0,1.1578,1.2574,1.3352,1.2836,1.3064,0.0,0.0,0.0,0.0,0.0,0.0,0.0,0.0,0.0,0.0,0.0,0.0,0.0,0.0,0.0,0.0,0.0,0.0,0.0,0.0,0.0,0.0,0.0,0.0,0.0,0.0,0.0,0.0,0.0,1.6083,1.6083,1.6083,1.6083,1.6083,1.6083,1.6083,1.6083,1.6083,1.6083,1.6083,1.6083,1.6083,1.6083,1.6083,1.6083,1.6083,1.6083,1.6083,1.6083,1.6083,1.6083,1.6083,1.6083,1.6083,1.6083,1.6083,1.6083,1.6083,1.6083,1.6083,1.6083,1.6083,1.6083,1.6083,1.6083,1.6083,1.6083,1.6083,1.6083,1.6083,1.6083,1.6083,1.6083,1.6083,1.6083,1.6083,1.6083,1.6083,1.6083,1.6083,1.6083,1.6083,1.6083,1.6083,1.6083,1.6083,1.6083,1.6083,1.6083,1.6083,1.6083,1.6083,1.6083,1.6083,1.6083,1.6083,1.6083,1.6083,1.6083,1.6083,1.6117,0.98,0.9877,1.0354,0.0,0.0,0.0,1.1684,1.2501,1.3384,1.3353,0.0,1.3403,0.0,0.0,0.0,0.0,0.0,0.0,0.0,0.0,0.0,0.0,0.0,0.0,0.0,0.0,0.0,0.0,0.0,0.0,0.0,0.0,0.0,0.0,0.0,0.0,0.0,0.0,0.0,1.6083,1.6083,1.6083,1.6083,1.6083,1.6083,1.6083,1.6083,1.6083,1.6083,1.6083,1.6083,1.6083,1.6083,1.6083,1.6083,1.6083,1.6083,1.6083,1.6083,1.6083,1.6083,1.6083,1.6083,1.6083,1.6083,1.6083,1.6083,1.6083,1.6083,1.6083,1.6083,1.6083,1.6083,1.6083,1.6083,1.6083,1.6083,1.6083,1.6083,1.6083,1.6083,1.6083,1.6083,1.6083,1.6083,1.6083,1.6083,1.6083,1.6083,1.6083,1.6083,1.6083,1.6083,1.6083,1.6083,1.6083,1.6083,1.6083,1.6083,1.6083,1.6083,1.6083,1.6083,1.6083,1.6083,1.6083,1.6083,1.6083,1.6083,1.6083,1.6083,1.6103,1.1741,1.2323,0.0,0.0,0.0,0.0,0.0,1.2802,0.0,0.0,0.0,0.0,0.0,0.0,0.0,0.0,0.0,0.0,0.0,0.0,0.0,0.0,0.0,0.0,0.0,0.0,0.0,0.0,0.0,0.0,0.0,0.0,0.0,0.0,0.0,0.0,0.0,0.0,0.0,0.0,1.6083,1.6083,1.6083,1.6083,1.6083,1.6083,1.6083,1.6083,1.6083,1.6083,1.6083,1.6083,1.6083,1.6083,1.6083,1.6083,1.6083,1.6083,1.6083,1.6083,1.6083,1.6083,1.6083,1.6083,1.6083,1.6083,1.6083,1.6083,1.6083,1.6083,1.6083,1.6083,1.6083,1.6083,1.6083,1.6083,1.6083,1.6083,1.6083,1.6083,1.6083,1.6083,1.6083,1.6083,1.6083,1.6083,1.6083,1.6083,1.6083,1.6083,1.6083,1.6083,1.6083,1.6083,1.6083,1.6083,1.6083,1.6083,1.6083,1.6083,1.6083,1.6083,1.6083,1.6083,1.6083,1.6083,1.6083,1.6083,1.6083,1.6083,1.6083,1.6103,1.1475,1.2166,0.0,0.0,0.0,0.0,0.0,0.0,0.0,0.0,0.0,0.0,0.0,0.0,0.0,0.0,0.0,0.0,0.0,0.0,0.0,0.0,0.0,0.0,0.0,0.0,0.0,0.0,0.0,0.0,0.0,0.0,0.0,0.0,0.0,0.0,0.0,0.0,0.0,0.0,1.6083,1.6083,1.6083,1.6083,1.6083,1.6083,1.6083,1.6083,1.6083,1.6083,1.6083,1.6083,1.6083,1.6083,1.6083,1.6083,1.6083,1.6083,1.6083,1.6083,1.6083,1.6083,1.6083,1.6083,1.6083,1.6083,1.6083,1.6083,1.6083,1.6083,1.6083,1.6083,1.6083,1.6083,1.6083,1.6083,1.6083,1.6083,1.6083,1.6083,1.6083,1.6083,1.6083,1.6083,1.6083,1.6083,1.6083,1.6083,1.6083,1.6083,1.6083,1.6083,1.6083,1.6083,1.6083,1.6083,1.6083,1.6083,1.6083,1.6083,1.6083,1.6083,1.6083,1.6083,1.6083,1.6083,1.6083,1.6083,1.6083,1.6083,1.6083,1.609,1.0065,0.0,0.0,1.3141,0.0,0.0,0.0,0.0,0.0,0.0,0.0,0.0,0.0,0.0,0.0,0.0,0.0,0.0,0.0,0.0,0.0,0.0,0.0,0.0,0.0,0.0,0.0,0.0,0.0,0.0,0.0,0.0,0.0,0.0,0.0,0.0,0.0,0.0,0.0,0.0,0.0,1.6083,1.6083,1.6083,1.6083,1.6083,1.6083,1.6083,1.6083,1.6083,1.6083,1.6083,1.6083,1.6083,1.6083,1.6083,1.6083,1.6083,1.6083,1.6083,1.6083,1.6083,1.6083,1.6083,1.6083,1.6083,1.6083,1.6083,1.6083,1.6083,1.6083,1.6083,1.6083,1.6083,1.6083,1.6083,1.6083,1.6083,1.6083,1.6083,1.6083,1.6083,1.6083,1.6083,1.6083,1.6083,1.6083,1.6083,1.6083,1.6083,1.6083,1.6083,1.6083,1.6083,1.6083,1.6083,1.6083,1.6083,1.6083,1.6083,1.6083,1.6083,1.6083,1.6083,1.6083,1.6083,1.6083,1.6083,1.6083,1.6083,1.6083,1.6083,1.2612,1.2691,0.0,0.0,1.3775,0.0,0.0,0.0,0.0,0.0,0.0,0.0,0.0,0.0,0.0,0.0,0.0,0.0,0.0,0.0,0.0,0.0,0.0,0.0,0.0,0.0,0.0,0.0,0.0,0.0,0.0,0.0,0.0,0.0,0.0,0.0,0.0,0.0,0.0,0.0,1.6083,1.6083,1.6083,1.6083,1.6083,1.6083,1.6083,1.6083,1.6083,1.6083,1.6083,1.6083,1.6083,1.6083,1.6083,1.6083,1.6083,1.6083,1.6083,1.6083,1.6083,1.6083,1.6083,1.6083,1.6083,1.6083,1.6083,1.6083,1.6083,1.6083,1.6083,1.6083,1.6083,1.6083,1.6083,1.6083,1.6083,1.6083,1.6083,1.6083,1.6083,1.6083,1.6083,1.6083,1.6083,1.6083,1.6083,1.6083,1.6083,1.6083,1.6083,1.6083,1.6083,1.6083,1.6083,1.6083,1.6083,1.6083,1.6083,1.6083,1.6083,1.6083,1.6083,1.6083,1.6083,1.6083,1.6083,1.6083,1.6083,1.6083,1.6083,1.6083,1.2693,0.0,0.0,1.4159,0.0,1.3981,0.0,0.0,0.0,0.0,0.0,0.0,0.0,0.0,0.0,0.0,0.0,0.0,0.0,0.0,0.0,0.0,0.0,0.0,0.0,0.0,0.0,0.0,0.0,0.0,0.0,0.0,0.0,0.0,0.0,0.0,0.0,1.6083,1.6083,1.6083,1.6083,1.6083,1.6083,1.6083,1.6083,1.6083,1.6083,1.6083,1.6083,1.6083,1.6083,1.6083,1.6083,1.6083,1.6083,1.6083,1.6083,1.6083,1.6083,1.6083,1.6083,1.6083,1.6083,1.6083,1.6083,1.6083,1.6083,1.6083,1.6083,1.6083,1.6083,1.6083,1.6083,1.6083,1.6083,1.6083,1.6083,1.6083,1.6083,1.6083,1.6083,1.6083,1.6083,1.6083,1.6083,1.6083,1.6083,1.6083,1.6083,1.6083,1.6083,1.6083,1.6083,1.6083,1.6083,1.6083,1.6083,1.6083,1.6083,1.6083,1.6083,1.6083,1.6083,1.6083,1.6083,1.6083,1.6083,1.6083,1.6083,1.6083,1.6083,1.6083,1.1724,1.28,1.3631,1.4125,1.4386,0.0,1.4318,0.0,0.0,0.0,0.0,0.0,0.0,0.0,0.0,0.0,0.0,0.0,0.0,0.0,0.0,0.0,0.0,0.0,0.0,0.0,0.0,0.0,0.0,0.0,0.0,0.0,0.0,0.0,0.0,0.0,0.0,1.6083,1.6083,1.6083,1.6083,1.6083,1.6083,1.6083,1.6083,1.6083,1.6083,1.6083,1.6083,1.6083,1.6083,1.6083,1.6083,1.6083,1.6083,1.6083,1.6083,1.6083,1.6083,1.6083,1.6083,1.6083,1.6083,1.6083,1.6083,1.6083,1.6083,1.6083,1.6083,1.6083,1.6083,1.6083,1.6083,1.6083,1.6083,1.6083,1.6083,1.6083,1.6083,1.6083,1.6083,1.6083,1.6083,1.6083,1.6083,1.6083,1.6083,1.6083,1.6083,1.6083,1.6083,1.6083,1.6083,1.6083,1.6083,1.6083,1.6083,1.6083,1.6083,1.6083,1.6083,1.6083,1.6083,1.6083,1.6083,1.6083,1.6083,1.6083,1.6083,1.6083,1.6083,1.6083,1.0643,0.0,1.4208,0.0,1.4285,1.4292,0.0,0.0,0.0,0.0,0.0,0.0,0.0,0.0,0.0,0.0,0.0,0.0,0.0,0.0,0.0,0.0,0.0,0.0,0.0,0.0,0.0,0.0,0.0,0.0,0.0,0.0,0.0,0.0,0.0,0.0,0.0,1.6083,1.6083,1.6083,1.6083,1.6083,1.6083,1.6083,1.6083,1.6083,1.6083,1.6083,1.6083,1.6083,1.6083,1.6083,1.6083,1.6083,1.6083,1.6083,1.6083,1.6083,1.6083,1.6083,1.6083,1.6083,1.6083,1.6083,1.6083,1.6083,1.6083,1.6083,1.6083,1.6083,1.6083,1.6083,1.6083,1.6083,1.6083,1.6083,1.6083,1.6083,1.6083,1.6083,1.6083,1.6083,1.6083,1.6083,1.6083,1.6083,1.6083,1.6083,1.6083,1.6083,1.6083,1.6083,1.6083,1.6083,1.6083,1.6083,1.6083,1.6083,1.6083,1.6083,1.6083,1.6083,1.6083,1.6083,1.6083,1.6083,1.6083,1.6083,1.6083,1.6083,1.6083,1.6083,0.998,1.2203,1.4217,0.0,1.4238,1.4299,1.4299,0.0,0.0,0.0,0.0,0.0,0.0,0.0,0.0,0.0,0.0,0.0,0.0,0.0,0.0,0.0,0.0,0.0,0.0,0.0,0.0,0.0,0.0,0.0,0.0,0.0,0.0,1.6083,0.0,0.0,0.0,1.6083,1.6083,1.6083,1.6083,1.6083,1.6083,1.6083,1.6083,1.6083,1.6083,1.6083,1.6083,1.6083,1.6083,1.6083,1.6083,1.6083,1.6083,1.6083,1.6083,1.6083,1.6083,1.6083,1.6083,1.6083,1.6083,1.6083,1.6083,1.6083,1.6083,1.6083,1.6083,1.6083,1.6083,1.6083,1.6083,1.6083,1.6083,1.6083,1.6083,1.6083,1.6083,1.6083,1.6083,1.6083,1.6083,1.6083,1.6083,1.6083,1.6083,1.6083,1.6083,1.6083,1.6083,1.6083,1.6083,1.6083,1.6083,1.6083,1.6083,1.6083,1.6083,1.6083,1.6083,1.6083,1.6083,1.6083,1.6083,1.6083,1.6083,1.6083,1.6083,1.6083,1.6083,1.6083,0.0,0.0,1.4055,1.4259,1.4374,1.4352,0.0,0.0,0.0,0.0,0.0,0.0,0.0,0.0,0.0,0.0,0.0,0.0,0.0,0.0,0.0,0.0,0.0,0.0,0.0,0.0,0.0,0.0,0.0,0.0,0.0,0.0,1.6083,1.6083,1.6083,1.6083,1.6083,1.6083,1.6083,1.6083,1.6083,1.6083,1.6083,1.6083,1.6083,1.6083,1.6083,1.6083,1.6083,1.6083,1.6083,1.6083,1.6083,1.6083,1.6083,1.6083,1.6083,1.6083,1.6083,1.6083,1.6083,1.6083,1.6083,1.6083,1.6083,1.6083,1.6083,1.6083,1.6083,1.6083,1.6083,1.6083,1.6083,1.6083,1.6083,1.6083,1.6083,1.6083,1.6083,1.6083,1.6083,1.6083,1.6083,1.6083,1.6083,1.6083,1.6083,1.6083,1.6083,1.6083,1.6083,1.6083,1.6083,1.6083,1.6083,1.6083,1.6083,1.6083,1.6083,1.6083,1.6083,1.6083,1.6083,1.6083,1.6083,1.6083,1.6083,1.6083,1.6083,1.6083,1.6083,1.609,0.0,1.1963,0.0,1.412,1.4244,0.0,0.0,0.0,0.0,0.0,0.0,0.0,0.0,0.0,0.0,0.0,0.0,0.0,0.0,0.0,0.0,0.0,0.0,0.0,0.0,0.0,0.0,0.0,0.0,0.0,0.0,1.6083,1.6083,1.6083,1.6083,1.6083,1.6083,1.6083,1.6083,1.6083,1.6083,1.6083,1.6083,1.6083,1.6083,1.6083,1.6083,1.6083,1.6083,1.6083,1.6083,1.6083,1.6083,1.6083,1.6083,1.6083,1.6083,1.6083,1.6083,1.6083,1.6083,1.6083,1.6083,1.6083,1.6083,1.6083,1.6083,1.6083,1.6083,1.6083,1.6083,1.6083,1.6083,1.6083,1.6083,1.6083,1.6083,1.6083,1.6083,1.6083,1.6083,1.6083,1.6083,1.6083,1.6083,1.6083,1.6083,1.6083,1.6083,1.6083,1.6083,1.6083,1.6083,1.6083,1.6083,1.6083,1.6083,1.6083,1.6083,1.6083,1.6083,1.6083,1.6083,1.6083,1.6083,1.6083,1.6083,1.6083,1.6083,1.6083,1.6083,1.6096,0.0,0.0,0.0,1.2467,1.3422,1.423,0.0,0.0,0.0,0.0,0.0,0.0,0.0,0.0,0.0,0.0,0.0,0.0,0.0,0.0,0.0,0.0,0.0,0.0,0.0,0.0,0.0,0.0,0.0,0.0,0.0,1.6083,1.6083,1.6083,1.6083,1.6083,1.6083,1.6083,1.6083,1.6083,1.6083,1.6083,1.6083,1.6083,1.6083,1.6083,1.6083,1.6083,1.6083,1.6083,1.6083,1.6083,1.6083,1.6083,1.6083,1.6083,1.6083,1.6083,1.6083,1.6083,1.6083,1.6083,1.6083,1.6083,1.6083,1.6083,1.6083,1.6083,1.6083,1.6083,1.6083,1.6083,1.6083,1.6083,1.6083,1.6083,1.6083,1.6083,1.6083,1.6083,1.6083,1.6083,1.6083,1.6083,1.6083,1.6083,1.6083,1.6083,1.6083,1.6083,1.6083,1.6083,1.6083,1.6083,1.6083,1.6083,1.6083,1.6083,1.6083,1.6083,1.6083,1.6083,1.6083,1.6083,1.6083,1.6083,1.6083,1.6083,1.6083,1.6083,1.6083,1.6103,0.9581,0.0,0.0,0.0,0.0,1.3507,1.4202,0.0,0.0,0.0,0.0,0.0,0.0,0.0,0.0,0.0,0.0,0.0,0.0,0.0,0.0,0.0,0.0,0.0,0.0,0.0,0.0,0.0,0.0,0.0,1.6083,1.6083,1.6083,1.6083,1.6083,1.6083,1.6083,1.6083,1.6083,1.6083,1.6083,1.6083,1.6083,1.6083,1.6083,1.6083,1.6083,1.6083,1.6083,1.6083,1.6083,1.6083,1.6083,1.6083,1.6083,1.6083,1.6083,1.6083,1.6083,1.6083,1.6083,1.6083,1.6083,1.6083,1.6083,1.6083,1.6083,1.6083,1.6083,1.6083,1.6083,1.6083,1.6083,1.6083,1.6083,1.6083,1.6083,1.6083,1.6083,1.6083,1.6083,1.6083,1.6083,1.6083,1.6083,1.6083,1.6083,1.6083,1.6083,1.6083,1.6083,1.6083,1.6083,1.6083,1.6083,1.6083,1.6083,1.6083,1.6083,1.6083,1.6083,1.6083,1.6083,1.6083,1.6083,1.6083,1.6083,1.6083,1.6083,1.6083,1.6083,1.6103,0.0,0.0,0.0,0.0,0.0,0.0,0.0,0.0,0.0,0.0,0.0,0.0,0.0,0.0,0.0,0.0,0.0,0.0,0.0,0.0,0.0,0.0,0.0,0.0,0.0,0.0,0.0,0.0,0.0,0.0,1.6083,1.6083,1.6083,1.6083,1.6083,1.6083,1.6083,1.6083,1.6083,1.6083,1.6083,1.6083,1.6083,1.6083,1.6083,1.6083,1.6083,1.6083,1.6083,1.6083,1.6083,1.6083,1.6083,1.6083,1.6083,1.6083,1.6083,1.6083,1.6083,1.6083,1.6083,1.6083,1.6083,1.6083,1.6083,1.6083,1.6083,1.6083,1.6083,1.6083,1.6083,1.6083,1.6083,1.6083,1.6083,1.6083,1.6083,1.6083,1.6083,1.6083,1.6083,1.6083,1.6083,1.6083,1.6083,1.6083,1.6083,1.6083,1.6083,1.6083,1.6083,1.6083,1.6083,1.6083,1.6083,1.6083,1.6083,1.6083,1.6083,1.6083,1.6083,1.6083,1.6083,1.6083,1.6083,1.6083,1.6083,1.6083,1.6083,1.6083,1.6083,1.6103,0.9669,0.0,0.0,0.0,0.0,0.0,0.0,0.0,0.0,0.0,0.0,0.0,0.0,0.0,0.0,0.0,0.0,0.0,0.0,0.0,0.0,0.0,0.0,0.0,0.0,0.0,0.0,0.0,0.0,1.6083,1.6083,1.6083,1.6083,1.6083,1.6083,1.6083,1.6083,1.6083,1.6083,1.6083,1.6083,1.6083,1.6083,1.6083,1.6083,1.6083,1.6083,1.6083,1.6083,1.6083,1.6083,1.6083,1.6083,1.6083,1.6083,1.6083,1.6083,1.6083,1.6083,1.6083,1.6083,1.6083,1.6083,1.6083,1.6083,1.6083,1.6083,1.6083,1.6083,1.6083,1.6083,1.6083,1.6083,1.6083,1.6083,1.6083,1.6083,1.6083,1.6083,1.6083,1.6083,1.6083,1.6083,1.6083,1.6083,1.6083,1.6083,1.6083,1.6083,1.6083,1.6083,1.6083,1.6083,1.6083,1.6083,1.6083,1.6083,1.6083,1.6083,1.6083,1.6083,1.6083,1.6083,1.6083,1.6083,1.6083,1.6083,1.6083,1.6083,1.6083,1.6144,1.3919,0.0,0.0,0.0,0.0,0.0,0.0,0.0,0.0,0.0,0.0,0.0,0.0,0.0,0.0,0.0,0.0,0.0,0.0,0.0,0.0,0.0,0.0,0.0,0.0,0.0,0.0,0.0,0.0,1.6083,1.6083,1.6083,1.6083,1.6083,1.6083,1.6083,1.6083,1.6083,1.6083,1.6083,1.6083,1.6083,1.6083,1.6083,1.6083,1.6083,1.6083,1.6083,1.6083,1.6083,1.6083,1.6083,1.6083,1.6083,1.6083,1.6083,1.6083,1.6083,1.6083,1.6083,1.6083,1.6083,1.6083,1.6083,1.6083,1.6083,1.6083,1.6083,1.6083,1.6083,1.6083,1.6083,1.6083,1.6083,1.6083,1.6083,1.6083,1.6083,1.6083,1.6083,1.6083,1.6083,1.6083,1.6083,1.6083,1.6083,1.6083,1.6083,1.6083,1.6083,1.6083,1.6083,1.6083,1.6083,1.6083,1.6083,1.6083,1.6083,1.6083,1.6083,1.6083,1.6083,1.6083,1.6083,1.6083,1.6083,1.6083,1.6083,1.6083,1.6083,1.6083,1.6164,1.3123,0.0,0.0,0.0,0.0,0.0,0.0,0.0,0.0,0.0,0.0,0.0,0.0,0.0,0.0,0.0,0.0,0.0,0.0,0.0,0.0,0.0,0.0,0.0,0.0,0.0,0.0,0.0,0.0,1.6083,1.6083,1.6083,1.6083,1.6083,1.6083,1.6083,1.6083,1.6083,1.6083,1.6083,1.6083,1.6083,1.6083,1.6083,1.6083,1.6083,1.6083,1.6083,1.6083,1.6083,1.6083,1.6083,1.6083,1.6083,1.6083,1.6083,1.6083,1.6083,1.6083,1.6083,1.6083,1.6083,1.6083,1.6083,1.6083,1.6083,1.6083,1.6083,1.6083,1.6083,1.6083,1.6083,1.6083,1.6083,1.6083,1.6083,1.6083,1.6083,1.6083,1.6083,1.6083,1.6083,1.6083,1.6083,1.6083,1.6083,1.6083,1.6083,1.6083,1.6083,1.6083,1.6083,1.6083,1.6083,1.6083,1.6083,1.6083,1.6083,1.6083,1.6083,1.6083,1.6083,1.6083,1.6083,1.6083,1.6083,1.6083,1.6083,1.6083,1.6083,1.6083,1.6164,1.3123,0.0,0.0,0.0,0.0,0.0,0.0,0.0,0.0,0.0,0.0,0.0,0.0,0.0,0.0,0.0,0.0,0.0,0.0,0.0,0.0,0.0,0.0,0.0,0.0,0.0,0.0,0.0,1.6083,1.6083,1.6083,1.6083,1.6083,1.6083,1.6083,1.6083,1.6083,1.6083,1.6083,1.6083,1.6083,1.6083,1.6083,1.6083,1.6083,1.6083,1.6083,1.6083,1.6083,1.6083,1.6083,1.6083,1.6083,1.6083,1.6083,1.6083,1.6083,1.6083,1.6083,1.6083,1.6083,1.6083,1.6083,1.6083,1.6083,1.6083,1.6083,1.6083,1.6083,1.6083,1.6083,1.6083,1.6083,1.6083,1.6083,1.6083,1.6083,1.6083,1.6083,1.6083,1.6083,1.6083,1.6083,1.6083,1.6083,1.6083,1.6083,1.6083,1.6083,1.6083,1.6083,1.6083,1.6083,1.6083,1.6083,1.6083,1.6083,1.6083,1.6083,1.6083,1.6083,1.6083,1.6083,1.6083,1.6083,1.6083,1.6083,1.6083,1.6083,1.6083,1.6083,1.6164,1.3123,0.0,0.0,0.0,1.1055,0.0,0.0,0.0,0.0,0.0,0.0,0.0,0.0,0.0,0.0,0.0,0.0,0.0,0.0,0.0,0.0,0.0,0.0,0.0,0.0,0.0,0.0,0.0,1.6076,1.6083,1.6083,1.6083,1.6083,1.6083,1.6083,1.6083,1.6083,1.6083,1.6083,1.6083,1.6083,1.6083,1.6083,1.6083,1.6083,1.6083,1.6083,1.6083,1.6083,1.6083,1.6083,1.6083,1.6083,1.6083,1.6083,1.6083,1.6083,1.6083,1.6083,1.6083,1.6083,1.6083,1.6083,1.6083,1.6083,1.6083,1.6083,1.6083,1.6083,1.6083,1.6083,1.6083,1.6083,1.6083,1.6083,1.6083,1.6083,1.6083,1.6083,1.6083,1.6083,1.6083,1.6083,1.6083,1.6083,1.6083,1.6083,1.6083,1.6083,1.6083,1.6083,1.6083,1.6083,1.6083,1.6083,1.6083,1.6083,1.6083,1.6083,1.6083,1.6083,1.6083,1.6083,1.6083,1.6083,1.6083,1.6083,1.6083,1.6083,1.6083,1.6083,1.6164,1.3123,0.0,0.0,0.0,0.0,0.0,1.0277,0.0,0.0,0.0,0.0,0.0,0.0,0.0,0.0,0.0,0.0,0.0,0.0,0.0,0.0,0.0,0.0,0.0,0.0,0.0,0.0,0.0,1.6062,1.6172,1.6158,1.6076,1.6083,1.6083,1.6083,1.6083,1.6083,1.6083,1.6083,1.6083,1.6083,1.6083,1.6083,1.6083,1.6083,1.6083,1.6083,1.6083,1.6083,1.6083,1.6083,1.6083,1.6083,1.6083,1.6083,1.6083,1.6083,1.6083,1.6083,1.6083,1.6083,1.6083,1.6083,1.6083,1.6083,1.6083,1.6083,1.6083,1.6083,1.6083,1.6083,1.6083,1.6083,1.6083,1.6083,1.6083,1.6083,1.6083,1.6083,1.6083,1.6083,1.6083,1.6083,1.6083,1.6083,1.6083,1.6083,1.6083,1.6083,1.6083,1.6083,1.6083,1.6083,1.6083,1.6083,1.6083,1.6083,1.6083,1.6083,1.6083,1.6083,1.6083,1.6083,1.6083,1.6083,1.6083,1.6083,1.6083,1.6083,1.6083,1.6083,1.6164,1.3123,0.0,0.0,0.0,0.0,1.1544,0.0,0.0,0.0,0.0,0.0,0.0,0.0,0.0,0.0,0.0,0.0,0.0,0.0,0.0,0.0,0.0,0.0,0.0,0.0,0.0,0.0,0.0,0.0,1.618,1.611,1.6056,1.6083,1.6083,1.6083,1.6083,1.6083,1.6083,1.6083,1.6083,1.6083,1.6083,1.6083,1.6083,1.6083,1.6083,1.6083,1.6083,1.6083,1.6083,1.6083,1.6083,1.6083,1.6083,1.6083,1.6083,1.6083,1.6083,1.6083,1.6083,1.6083,1.6083,1.6083,1.6083,1.6083,1.6083,1.6083,1.6083,1.6083,1.6083,1.6083,1.6083,1.6083,1.6083,1.6083,1.6083,1.6083,1.6083,1.6083,1.6083,1.6083,1.6083,1.6083,1.6083,1.6083,1.6083,1.6083,1.6083,1.6083,1.6083,1.6083,1.6083,1.6083,1.6083,1.6083,1.6083,1.6083,1.6083,1.6083,1.6083,1.6083,1.6083,1.6083,1.6083,1.6083,1.6083,1.6083,1.6083,1.6083,1.6083,1.6083,1.6164,1.3123,0.0,0.0,0.0,0.0,0.0,0.0,0.0,0.0,1.0616,0.0,0.0,0.0,0.0,0.0,0.0,0.0,0.0,0.0,0.0,0.0,0.0,0.0,0.0,0.0,0.0,0.0,0.0,0.0,0.0,1.6067,1.6196,1.6186,1.6083,1.6083,1.6083,1.6083,1.6083,1.6083,1.6083,1.6083,1.6083,1.6083,1.6083,1.6083,1.6083,1.6083,1.6083,1.6083,1.6083,1.6083,1.6083,1.6083,1.6083,1.6083,1.6083,1.6083,1.6083,1.6083,1.6083,1.6083,1.6083,1.6083,1.6083,1.6083,1.6083,1.6083,1.6083,1.6083,1.6083,1.6083,1.6083,1.6083,1.6083,1.6083,1.6083,1.6083,1.6083,1.6083,1.6083,1.6083,1.6083,1.6083,1.6083,1.6083,1.6083,1.6083,1.6083,1.6083,1.6083,1.6083,1.6083,1.6083,1.6083,1.6083,1.6083,1.6083,1.6083,1.6083,1.6083,1.6083,1.6083,1.6083,1.6083,1.6083,1.6083,1.6083,1.6083,1.6083,1.6083,1.6083,1.6164,1.3123,1.1593,0.0,0.0,0.0,0.0,0.0,0.0,0.0,0.0,0.0,0.0,0.0,0.0,0.0,0.0,0.0,0.0,0.0,0.0,0.0,0.0,0.0,0.0,0.0,0.0,0.0,0.0,0.0,0.0,0.0,1.6064,1.6103,1.6042,1.6083,1.6083,1.6083,1.6083,1.6083,1.6083,1.6083,1.6083,1.6083,1.6083,1.6083,1.6083,1.6083,1.6083,1.6083,1.6083,1.6083,1.6083,1.6083,1.6083,1.6083,1.6083,1.6083,1.6083,1.6083,1.6083,1.6083,1.6083,1.6083,1.6083,1.6083,1.6083,1.6083,1.6083,1.6083,1.6083,1.6083,1.6083,1.6083,1.6083,1.6083,1.6083,1.6083,1.6083,1.6083,1.6083,1.6083,1.6083,1.6083,1.6083,1.6083,1.6083,1.6083,1.6083,1.6083,1.6083,1.6083,1.6083,1.6083,1.6083,1.6083,1.6083,1.6083,1.6083,1.6083,1.6083,1.6083,1.6083,1.6083,1.6083,1.6083,1.6083,1.6083,1.6083,1.6083,1.609,1.6096,1.6171,1.3123,0.0,0.0,0.0,0.0,0.0,0.0,0.0,0.0,1.0657,0.0,0.0,0.0,0.0,0.0,0.0,0.0,0.0,0.0,0.0,0.0,0.0,0.0,0.0,0.0,0.0,0.0,0.0,0.0,0.0,0.0,0.0,1.6055,1.6131,1.6076,1.6083,1.6083,1.6083,1.6083,1.6083,1.6083,1.6083,1.6083,1.6083,1.6083,1.6083,1.6083,1.6083,1.6083,1.6083,1.6083,1.6083,1.6083,1.6083,1.6083,1.6083,1.6083,1.6083,1.6083,1.6083,1.6083,1.6083,1.6083,1.6083,1.6083,1.6083,1.6083,1.6083,1.6083,1.6083,1.6083,1.6083,1.6083,1.6083,1.6083,1.6083,1.6083,1.6083,1.6083,1.6083,1.6083,1.6083,1.6083,1.6083,1.6083,1.6083,1.6083,1.6083,1.6083,1.6083,1.6083,1.6083,1.6083,1.6083,1.6083,1.6083,1.6083,1.6083,1.6083,1.6083,1.6083,1.6083,1.6083,1.6083,1.6083,1.6083,1.6083,1.6083,1.6083,1.6096,1.613,1.6178,1.3123,0.0,0.0,1.2508,1.2752,0.0,0.0,0.0,0.0,0.0,0.0,0.0,0.0,0.0,0.0,0.0,0.0,0.0,0.0,0.0,0.0,0.0,0.0,0.0,0.0,0.0,0.0,0.0,0.0,0.0,0.0,0.0,1.5856,1.6028,1.6076,1.6083,1.6083,1.6083,1.6083,1.6083,1.6083,1.6083,1.6083,1.6083,1.6083,1.6083,1.6083,1.6083,1.6083,1.6083,1.6083,1.6083,1.6083,1.6083,1.6083,1.6083,1.6083,1.6083,1.6083,1.6083,1.6083,1.6083,1.6083,1.6083,1.6083,1.6083,1.6083,1.6083,1.6083,1.6083,1.6083,1.6083,1.6083,1.6083,1.6083,1.6083,1.6083,1.6083,1.6083,1.6083,1.6083,1.6083,1.6083,1.6083,1.6083,1.6083,1.6083,1.6083,1.6083,1.6083,1.6083,1.6083,1.6083,1.6083,1.6083,1.6083,1.6083,1.6083,1.6083,1.6083,1.6083,1.6083,1.6083,1.6083,1.6083,1.6083,1.6083,1.6083,1.6083,1.6096,1.5931,1.2489,1.1698,1.5211,1.4297,0.0,0.0,1.2379,0.0,0.0,0.0,0.0,0.0,0.0,0.0,0.0,0.0,0.0,0.0,0.0,0.0,0.0,0.9806,0.0,0.0,0.0,0.0,0.0,0.0,0.0,0.0,0.0,0.0,0.0,0.0,1.6175,1.6076,1.6083,1.6083,1.6083,1.6083,1.6083,1.6083,1.6083,1.6083,1.6083,1.6083,1.6083,1.6083,1.6083,1.6083,1.6083,1.6083,1.6083,1.6083,1.6083,1.6083,1.6083,1.6083,1.6083,1.6083,1.6083,1.6083,1.6083,1.6083,1.6083,1.6083,1.6083,1.6083,1.6083,1.6083,1.6083,1.6083,1.6083,1.6083,1.6083,1.6083,1.6083,1.6083,1.6083,1.6083,1.6083,1.6083,1.6083,1.6083,1.6083,1.6083,1.6083,1.6083,1.6083,1.6083,1.6083,1.6083,1.6083,1.6083,1.6083,1.6083,1.6083,1.6083,1.6083,1.6083,1.6083,1.6083,1.6083,1.6083,1.6083,1.6083,1.6083,1.6083,1.6083,1.6083,1.6096,1.5931,1.0458,1.0891]}]]